FW7316 Weather Reports


time (UTC)temp
C
wind
direction
speed
KPH
gust
KPH
rain 1hr
cm
rain 24hr
cm
rain mn
cm
humidity
%
barometer
mb
20210518202004 17 227 24.1 27.4 0.00 0.03 0.03 43 1010.6
20210518201901 17 202 19.3 27.4 0.00 0.03 0.03 43 1010.6
20210518201821 17 191 22.5 27.4 0.00 0.03 0.03 43 1010.6
20210518201708 17 211 20.9 27.4 0.00 0.03 0.03 42 1010.6
20210518201601 17 192 20.9 27.4 0.00 0.03 0.03 42 1010.6
20210518201502 17 196 27.4 30.6 0.00 0.03 0.03 42 1010.6
20210518201404 17 190 25.7 30.6 0.00 0.03 0.03 42 1010.7
20210518201302 17 189 20.9 30.6 0.00 0.03 0.03 41 1010.7
20210518201202 17 193 19.3 30.6 0.00 0.03 0.03 41 1010.7
20210518201123 17 192 24.1 30.6 0.00 0.03 0.03 41 1010.7
20210518201027 17 188 12.9 30.6 0.00 0.03 0.03 41 1010.7
20210518200923 17 189 24.1 30.6 0.00 0.03 0.03 40 1010.7
20210518200805 17 186 24.1 30.6 0.00 0.03 0.03 40 1010.7
20210518200701 17 181 14.5 24.1 0.00 0.03 0.03 40 1010.7
20210518200601 17 202 12.9 27.4 0.00 0.03 0.03 39 1010.7
20210518200504 17 202 16.1 27.4 0.00 0.03 0.03 39 1010.7
20210518200402 17 201 14.5 29.0 0.00 0.03 0.03 39 1010.7
20210518200300 17 190 11.3 29.0 0.00 0.03 0.03 39 1010.7
20210518200203 17 201 11.3 29.0 0.00 0.03 0.03 38 1010.7
20210518200114 17 202 9.7 29.0 0.00 0.03 0.03 38 1010.7
20210518200004 17 187 8.0 29.0 0.00 0.03 0.03 39 1010.7
20210518195902 17 201 12.9 29.0 0.00 0.03 0.03 39 1010.7
20210518195802 17 200 9.7 29.0 0.00 0.03 0.03 38 1010.8
20210518195702 17 203 16.1 29.0 0.00 0.03 0.03 38 1010.8
20210518195604 17 204 20.9 29.0 0.00 0.03 0.03 38 1010.9
20210518195502 17 225 11.3 29.0 0.00 0.03 0.03 37 1010.8
20210518195401 17 219 20.9 29.0 0.00 0.03 0.03 36 1010.7
20210518195324 17 229 14.5 27.4 0.00 0.03 0.03 36 1010.7
20210518195201 18 210 12.9 27.4 0.00 0.03 0.03 37 1010.8
20210518195102 18 221 25.7 27.4 0.00 0.03 0.03 37 1010.8
20210518195007 18 206 22.5 27.4 0.00 0.03 0.03 36 1010.8
20210518194902 18 221 14.5 27.4 0.00 0.03 0.03 36 1010.8
20210518194802 18 233 24.1 27.4 0.00 0.03 0.03 36 1010.7
20210518194703 18 237 11.3 27.4 0.00 0.03 0.03 36 1010.7
20210518194601 18 229 12.9 27.4 0.00 0.03 0.03 36 1010.7
20210518194501 18 244 16.1 27.4 0.00 0.03 0.03 35 1010.7
20210518194404 18 244 9.7 27.4 0.00 0.03 0.03 35 1010.7
20210518194302 18 225 11.3 29.0 0.00 0.03 0.03 35 1010.6
20210518194201 18 220 24.1 29.0 0.00 0.03 0.03 35 1010.6
20210518194105 18 231 12.9 29.0 0.00 0.03 0.03 35 1010.6
20210518194003 18 243 19.3 29.0 0.00 0.03 0.03 35 1010.5
20210518193902 18 227 16.1 32.2 0.00 0.03 0.03 35 1010.5
20210518193807 18 209 16.1 32.2 0.00 0.03 0.03 35 1010.5
20210518193719 18 213 16.1 32.2 0.00 0.03 0.03 36 1010.5
20210518193601 18 214 17.7 32.2 0.00 0.03 0.03 35 1010.4
20210518193504 18 192 11.3 32.2 0.00 0.03 0.03 35 1010.3
20210518193401 18 207 17.7 32.2 0.00 0.03 0.03 35 1010.3
20210518193301 18 225 20.9 32.2 0.00 0.03 0.03 35 1010.3
20210518193203 18 225 19.3 32.2 0.00 0.03 0.03 34 1010.3
20210518193102 18 225 20.9 32.2 0.00 0.03 0.03 34 1010.3
20210518193002 18 215 19.3 40.2 0.00 0.03 0.03 34 1010.2
20210518192903 18 228 25.7 40.2 0.00 0.03 0.03 33 1010.3
20210518192800 18 219 25.7 40.2 0.00 0.03 0.03 33 1010.3
20210518192702 18 229 22.5 40.2 0.00 0.03 0.03 33 1010.2
20210518192604 18 225 19.3 40.2 0.00 0.03 0.03 33 1010.2
20210518192501 18 227 25.7 40.2 0.00 0.03 0.03 33 1010.2
20210518192402 18 203 17.7 40.2 0.00 0.03 0.03 33 1010.1
20210518192306 18 213 20.9 40.2 0.00 0.03 0.03 32 1010.1
20210518192202 18 207 12.9 40.2 0.00 0.03 0.03 33 1010.2
20210518192102 18 219 27.4 40.2 0.00 0.03 0.03 33 1010.3
20210518192008 18 229 20.9 41.8 0.00 0.03 0.03 32 1010.3
20210518191900 18 225 20.9 37.0 0.00 0.03 0.03 32 1010.2
20210518191801 18 221 22.5 37.0 0.00 0.03 0.03 32 1010.2
20210518191703 18 217 20.9 37.0 0.00 0.03 0.03 32 1010.1
20210518191602 18 199 25.7 37.0 0.00 0.03 0.03 32 1010.1
20210518191502 18 220 25.7 37.0 0.00 0.03 0.03 32 1010.1
20210518191407 18 227 19.3 37.0 0.00 0.03 0.03 32 1010.1
20210518191302 18 217 22.5 37.0 0.00 0.03 0.03 32 1010.1
20210518191200 18 360 30.6 38.6 0.00 0.03 0.03 32 1010.1
20210518191103 18 190 29.0 38.6 0.00 0.03 0.03 32 1010.1
20210518191005 18 205 17.7 38.6 0.00 0.03 0.03 31 1010.1
20210518190903 18 194 20.9 38.6 0.00 0.03 0.03 31 1010.1
20210518190804 18 198 12.9 38.6 0.00 0.03 0.03 31 1010.1
20210518190720 18 197 27.4 38.6 0.00 0.03 0.03 31 1010.1
20210518190600 18 198 30.6 37.0 0.00 0.03 0.03 31 1010.1
20210518190525 18 175 14.5 37.0 0.00 0.03 0.03 31 1010.1
20210518190401 18 205 27.4 37.0 0.00 0.03 0.03 31 1010.2
20210518190302 18 186 20.9 37.0 0.00 0.03 0.03 31 1010.2
20210518190204 18 213 25.7 37.0 0.00 0.03 0.03 30 1010.2
20210518190115 18 198 27.4 37.0 0.00 0.03 0.03 30 1010.1
20210518190005 18 207 20.9 37.0 0.00 0.03 0.03 30 1010.1
20210518185904 18 182 27.4 37.0 0.00 0.03 0.03 29 1010.1
20210518185801 18 190 20.9 37.0 0.00 0.03 0.03 29 1010.1
20210518185702 18 200 16.1 40.2 0.00 0.03 0.03 29 1010.0
20210518185603 18 195 22.5 49.9 0.00 0.03 0.03 29 1010.1
20210518185501 18 196 20.9 49.9 0.00 0.03 0.03 29 1010.1
20210518185401 18 192 19.3 49.9 0.00 0.03 0.03 29 1010.0
20210518185306 18 187 17.7 49.9 0.00 0.03 0.03 29 1010.0
20210518185201 18 187 20.9 49.9 0.00 0.03 0.03 28 1010.0
20210518185102 18 187 35.4 49.9 0.00 0.03 0.03 28 1010.0
20210518185008 18 176 29.0 49.9 0.00 0.03 0.03 28 1010.0
20210518184901 18 213 27.4 49.9 0.00 0.03 0.03 28 1009.9
20210518184802 18 185 25.7 49.9 0.00 0.03 0.03 28 1009.9
20210518184724 18 193 37.0 49.9 0.00 0.03 0.03 28 1009.9
20210518184601 18 207 35.4 51.5 0.00 0.03 0.03 28 1009.8
20210518184502 18 196 32.2 51.5 0.00 0.03 0.03 28 1009.8
20210518184404 18 185 29.0 51.5 0.00 0.03 0.03 27 1009.8
20210518184301 18 168 20.9 53.1 0.00 0.03 0.03 27 1009.8
20210518184200 18 194 30.6 53.1 0.00 0.03 0.03 27 1009.7
20210518184105 18 207 35.4 53.1 0.00 0.03 0.03 27 1009.8
20210518184003 18 217 27.4 53.1 0.00 0.03 0.03 27 1009.7
20210518183902 18 187 37.0 53.1 0.00 0.03 0.03 27 1009.7
20210518183803 19 222 43.5 53.1 0.00 0.03 0.03 27 1009.7
20210518183701 19 200 33.8 53.1 0.00 0.03 0.03 28 1009.6
20210518183602 19 207 35.4 53.1 0.00 0.03 0.03 28 1009.6
20210518183504 19 207 25.7 53.1 0.00 0.03 0.03 28 1009.6
20210518183401 19 184 25.7 53.1 0.00 0.03 0.03 27 1009.6
20210518183302 19 215 49.9 54.7 0.00 0.03 0.03 27 1009.5
20210518183203 19 220 33.8 51.5 0.00 0.03 0.03 29 1009.5
20210518183103 19 196 30.6 49.9 0.00 0.03 0.03 29 1009.4
20210518183001 19 207 27.4 49.9 0.00 0.03 0.03 29 1009.4
20210518182903 19 207 29.0 49.9 0.00 0.03 0.03 28 1009.4
20210518182801 19 211 35.4 49.9 0.00 0.03 0.03 28 1009.5
20210518182702 19 198 25.7 49.9 0.00 0.03 0.03 29 1009.3
20210518182604 19 211 29.0 53.1 0.00 0.03 0.03 29 1009.4
20210518182502 19 217 48.3 67.6 0.00 0.03 0.03 29 1009.4
20210518182402 19 199 27.4 67.6 0.00 0.03 0.03 29 1009.3
20210518182305 19 208 43.5 67.6 0.00 0.03 0.03 30 1009.4
20210518182201 19 225 30.6 67.6 0.00 0.03 0.03 30 1009.4
20210518182101 19 216 27.4 67.6 0.00 0.03 0.03 31 1009.4
20210518182006 19 203 22.5 67.6 0.00 0.03 0.03 31 1009.4
20210518181902 19 204 32.2 67.6 0.00 0.03 0.03 31 1009.4
20210518181802 19 189 33.8 67.6 0.00 0.03 0.03 32 1009.3
20210518181705 19 202 40.2 67.6 0.00 0.03 0.03 31 1009.2
20210518181601 19 187 27.4 67.6 0.00 0.03 0.03 33 1009.3
20210518181502 19 236 19.3 54.7 0.00 0.03 0.03 34 1009.2
20210518181404 19 163 24.1 54.7 0.00 0.03 0.03 34 1009.3
20210518181301 19 207 29.0 54.7 0.00 0.03 0.03 34 1009.3
20210518181201 19 213 33.8 51.5 0.00 0.03 0.03 34 1009.3
20210518181104 19 180 32.2 51.5 0.00 0.03 0.03 35 1009.2
20210518181002 19 182 24.1 51.5 0.00 0.03 0.03 35 1009.1
20210518180901 19 221 45.1 51.5 0.00 0.03 0.03 35 1009.2
20210518180804 19 212 29.0 51.5 0.00 0.03 0.03 35 1009.2
20210518180700 19 191 41.8 45.1 0.00 0.03 0.03 35 1009.1
20210518180601 19 186 25.7 45.1 0.00 0.03 0.03 35 1009.3
20210518180504 19 169 17.7 45.1 0.00 0.03 0.03 35 1009.3
20210518180401 19 195 33.8 45.1 0.00 0.03 0.03 36 1009.2
20210518180300 19 173 24.1 45.1 0.00 0.03 0.03 36 1009.3
20210518180204 19 210 20.9 45.1 0.00 0.03 0.03 37 1009.2
20210518180113 19 186 24.1 40.2 0.00 0.03 0.03 38 1009.3
20210518180004 19 192 27.4 40.2 0.00 0.03 0.03 38 1009.3
20210518175903 19 193 17.7 45.1 0.00 0.03 0.03 38 1009.2
20210518175802 19 219 32.2 45.1 0.00 0.03 0.03 38 1009.3
20210518175702 19 215 20.9 45.1 0.00 0.03 0.03 39 1009.3
20210518175603 19 214 27.4 45.1 0.00 0.03 0.03 38 1009.3
20210518175502 19 202 19.3 45.1 0.00 0.03 0.03 39 1009.4
20210518175400 19 215 32.2 45.1 0.00 0.03 0.03 39 1009.4
20210518175305 19 212 19.3 45.1 0.00 0.03 0.03 39 1009.3
20210518175202 19 209 20.9 45.1 0.00 0.03 0.03 39 1009.4
20210518175102 19 221 32.2 45.1 0.00 0.03 0.03 39 1009.6
20210518175009 19 201 27.4 45.1 0.00 0.03 0.03 40 1009.6
20210518174903 19 207 35.4 45.1 0.00 0.03 0.03 40 1009.5
20210518174802 19 223 29.0 41.8 0.00 0.03 0.03 40 1009.5
20210518174703 19 227 38.6 38.6 0.00 0.03 0.03 40 1009.4
20210518174601 19 232 12.9 27.4 0.00 0.03 0.03 41 1009.5
20210518174502 19 232 25.7 33.8 0.00 0.03 0.03 42 1009.6
20210518174403 19 184 19.3 33.8 0.00 0.03 0.03 41 1009.6
20210518174301 19 204 11.3 33.8 0.00 0.03 0.03 41 1009.5
20210518174202 19 215 11.3 33.8 0.00 0.03 0.03 41 1009.5
20210518174107 19 223 9.7 33.8 0.00 0.03 0.03 41 1009.5
20210518174003 19 203 9.7 33.8 0.00 0.03 0.03 41 1009.6
20210518173900 19 230 16.1 33.8 0.00 0.03 0.03 40 1009.6
20210518173823 19 209 11.3 33.8 0.00 0.03 0.03 40 1009.6
20210518173702 19 238 17.7 33.8 0.00 0.03 0.03 41 1009.8
20210518173601 19 205 14.5 33.8 0.00 0.03 0.03 41 1009.8
20210518173504 19 237 29.0 32.2 0.00 0.03 0.03 41 1009.8
20210518173402 19 219 17.7 32.2 0.00 0.03 0.03 40 1009.8
20210518173302 19 215 25.7 32.2 0.00 0.03 0.03 40 1009.8
20210518173203 19 203 11.3 32.2 0.00 0.03 0.03 40 1009.9
20210518173102 19 196 12.9 30.6 0.00 0.03 0.03 40 1009.9
20210518173002 19 211 12.9 30.6 0.00 0.03 0.03 40 1009.9
20210518172921 19 222 16.1 30.6 0.00 0.03 0.03 40 1009.9
20210518172802 19 205 9.7 30.6 0.00 0.03 0.03 40 1009.8
20210518172702 19 207 16.1 30.6 0.00 0.03 0.03 40 1009.8
20210518172605 19 225 25.7 29.0 0.00 0.03 0.03 40 1009.8
20210518172502 20 215 19.3 29.0 0.00 0.03 0.03 40 1009.7
20210518172402 20 248 17.7 29.0 0.00 0.03 0.03 39 1009.8
20210518172306 20 215 17.7 29.0 0.00 0.03 0.03 39 1009.7
20210518172200 20 198 24.1 30.6 0.00 0.03 0.03 39 1009.7
20210518172102 20 186 12.9 30.6 0.00 0.03 0.03 38 1009.6
20210518172007 20 170 12.9 30.6 0.00 0.03 0.03 38 1009.6
20210518171900 20 186 16.1 30.6 0.00 0.03 0.03 39 1009.6
20210518171801 20 182 17.7 30.6 0.00 0.03 0.03 38 1009.6
20210518171704 20 189 25.7 30.6 0.00 0.03 0.03 39 1009.5
20210518171602 20 199 16.1 30.6 0.00 0.03 0.03 39 1009.6
20210518171501 20 192 11.3 30.6 0.00 0.03 0.03 38 1009.6
20210518171404 20 194 16.1 30.6 0.00 0.03 0.03 38 1009.6
20210518171301 20 197 25.7 30.6 0.00 0.03 0.03 38 1009.7
20210518171201 20 199 30.6 35.4 0.00 0.03 0.03 39 1009.7
20210518171104 20 209 22.5 38.6 0.00 0.03 0.03 40 1009.7
20210518171027 20 196 16.1 49.9 0.00 0.03 0.03 39 1009.7
20210518170901 20 213 11.3 49.9 0.00 0.03 0.03 39 1009.5
20210518170802 20 221 22.5 49.9 0.00 0.03 0.03 39 1009.5
20210518170702 20 225 22.5 49.9 0.00 0.03 0.03 40 1009.5
20210518170602 20 174 9.7 49.9 0.00 0.03 0.03 40 1009.4
20210518170507 20 186 8.0 49.9 0.00 0.03 0.03 40 1009.4
20210518170402 20 214 24.1 49.9 0.00 0.03 0.03 42 1009.3
20210518170300 20 219 25.7 49.9 0.00 0.03 0.03 42 1009.3
20210518170207 20 224 27.4 49.9 0.00 0.03 0.03 42 1009.3
20210518170134 20 211 25.7 48.3 0.00 0.03 0.03 41 1009.3
20210518170010 20 234 22.5 48.3 0.00 0.03 0.03 41 1009.3
20210518165904 20 217 38.6 43.5 0.00 0.05 0.03 41 1009.4
20210518165820 20 213 24.1 43.5 0.00 0.05 0.03 41 1009.3
20210518165702 20 242 29.0 43.5 0.00 0.05 0.03 41 1009.3
20210518165603 20 220 19.3 43.5 0.00 0.05 0.03 41 1009.4
20210518165501 20 204 22.5 43.5 0.00 0.05 0.03 42 1009.3
20210518165402 20 174 37.0 43.5 0.00 0.05 0.03 41 1009.3
20210518165305 20 183 25.7 43.5 0.00 0.05 0.03 41 1009.3
20210518165221 20 214 16.1 43.5 0.00 0.05 0.03 41 1009.3
20210518165100 20 175 40.2 45.1 0.00 0.05 0.03 42 1009.3
20210518165007 20 184 29.0 41.8 0.00 0.05 0.03 42 1009.3
20210518164902 20 198 22.5 40.2 0.00 0.05 0.03 41 1009.3
20210518164800 20 187 29.0 41.8 0.00 0.05 0.03 41 1009.3
20210518164702 20 191 16.1 41.8 0.00 0.05 0.03 42 1009.4
20210518164602 20 225 19.3 41.8 0.00 0.05 0.03 43 1009.4
20210518164502 20 228 29.0 41.8 0.00 0.05 0.03 43 1009.4
20210518164403 20 217 29.0 41.8 0.00 0.05 0.03 42 1009.3
20210518164302 20 209 27.4 41.8 0.00 0.05 0.03 42 1009.2
20210518164201 20 207 27.4 41.8 0.00 0.05 0.03 42 1009.2
20210518164103 20 222 16.1 41.8 0.00 0.05 0.03 42 1009.2
20210518164005 21 234 29.0 41.8 0.00 0.05 0.03 43 1009.3
20210518163900 21 232 27.4 41.8 0.00 0.05 0.03 42 1009.3
20210518163803 21 228 24.1 35.4 0.00 0.05 0.03 41 1009.2
20210518163702 21 211 17.7 35.4 0.00 0.05 0.03 41 1009.3
20210518163601 21 217 17.7 29.0 0.00 0.05 0.03 42 1009.4
20210518163507 21 213 12.9 40.2 0.00 0.05 0.03 42 1009.4
20210518163401 21 202 20.9 40.2 0.00 0.05 0.03 42 1009.3
20210518163301 21 215 12.9 40.2 0.00 0.05 0.03 42 1009.3
20210518163204 21 169 11.3 45.1 0.00 0.05 0.03 42 1009.3
20210518163102 21 200 11.3 45.1 0.00 0.05 0.03 44 1009.3
20210518163003 21 196 11.3 45.1 0.00 0.05 0.03 44 1009.3
20210518162904 21 157 3.2 45.1 0.00 0.05 0.03 43 1009.3
20210518162801 21 227 20.9 45.1 0.00 0.05 0.03 44 1009.3
20210518162700 21 219 20.9 45.1 0.00 0.05 0.03 44 1009.3
20210518162606 21 225 24.1 45.1 0.00 0.05 0.03 43 1009.2
20210518162502 21 213 22.5 45.1 0.00 0.05 0.03 44 1009.2
20210518162402 21 221 24.1 45.1 0.00 0.05 0.03 44 1009.3
20210518162305 21 194 19.3 45.1 0.00 0.05 0.03 43 1009.3
20210518162200 21 221 32.2 45.1 0.00 0.05 0.03 43 1009.2
20210518162100 21 216 24.1 43.5 0.00 0.05 0.03 42 1009.3
20210518162007 21 215 37.0 43.5 0.00 0.05 0.03 43 1009.3
20210518161902 21 182 11.3 43.5 0.00 0.05 0.03 42 1009.4
20210518161821 21 211 22.5 43.5 0.00 0.05 0.03 42 1009.4
20210518161702 21 234 29.0 43.5 0.00 0.05 0.03 44 1009.4
20210518161601 21 245 24.1 43.5 0.00 0.05 0.03 44 1009.4
20210518161502 21 221 19.3 43.5 0.00 0.05 0.03 44 1009.3
20210518161402 21 196 27.4 43.5 0.00 0.05 0.03 43 1009.4
20210518161302 21 159 35.4 35.4 0.00 0.05 0.03 44 1009.4
20210518161201 21 225 16.1 35.4 0.00 0.05 0.03 44 1009.5
20210518161103 21 213 14.5 35.4 0.00 0.05 0.03 44 1009.5
20210518161001 21 223 20.9 35.4 0.00 0.05 0.03 44 1009.5
20210518160900 21 197 22.5 35.4 0.00 0.05 0.03 43 1009.5
20210518160824 21 228 22.5 35.4 0.00 0.05 0.03 43 1009.5
20210518160702 21 237 20.9 35.4 0.00 0.05 0.03 42 1009.6
20210518160621 22 209 33.8 35.4 0.00 0.05 0.03 43 1009.6
20210518160507 22 236 27.4 35.4 0.00 0.05 0.03 42 1009.6
20210518160400 22 248 14.5 35.4 0.00 0.05 0.03 43 1009.7
20210518160302 22 206 19.3 35.4 0.00 0.05 0.03 43 1009.7
20210518160203 22 213 20.9 40.2 0.00 0.05 0.03 43 1009.7
20210518160113 21 217 19.3 40.2 0.00 0.05 0.03 43 1009.7
20210518160006 21 220 20.9 40.2 0.00 0.05 0.03 43 1009.8
20210518155922 21 221 25.7 40.2 0.00 0.05 0.03 43 1009.8
20210518155800 21 207 22.5 46.7 0.00 0.05 0.03 44 1009.8
20210518155710 21 215 16.1 46.7 0.00 0.05 0.03 44 1009.8
20210518155603 21 214 12.9 46.7 0.00 0.05 0.03 44 1009.9
20210518155502 21 218 24.1 46.7 0.00 0.05 0.03 44 1009.9
20210518155402 21 220 20.9 46.7 0.00 0.05 0.03 44 1009.9
20210518155306 21 202 22.5 46.7 0.00 0.05 0.03 44 1009.8
20210518155202 21 223 40.2 46.7 0.00 0.05 0.03 44 1009.8
20210518155102 21 213 17.7 46.7 0.00 0.05 0.03 44 1009.8
20210518155007 21 202 12.9 46.7 0.00 0.05 0.03 43 1009.8
20210518154900 22 222 32.2 46.7 0.00 0.05 0.03 44 1009.7
20210518154800 22 240 33.8 45.1 0.00 0.05 0.03 44 1009.7
20210518154703 22 215 35.4 45.1 0.00 0.05 0.03 44 1009.7
20210518154601 22 231 27.4 37.0 0.00 0.05 0.03 44 1009.7
20210518154503 22 252 25.7 37.0 0.00 0.05 0.03 44 1009.7
20210518154404 22 221 22.5 37.0 0.00 0.05 0.03 44 1009.7
20210518154300 22 212 19.3 37.0 0.00 0.05 0.03 44 1009.7
20210518154224 22 229 12.9 37.0 0.00 0.05 0.03 44 1009.7
20210518154102 22 215 27.4 37.0 0.00 0.05 0.03 43 1009.7
20210518154003 22 227 30.6 41.8 0.00 0.05 0.03 44 1009.7
20210518153902 22 225 24.1 41.8 0.00 0.05 0.03 44 1009.7
20210518153804 22 232 14.5 41.8 0.00 0.05 0.03 44 1009.7
20210518153702 22 226 22.5 41.8 0.00 0.05 0.03 43 1009.7
20210518153601 22 229 27.4 41.8 0.00 0.05 0.03 44 1009.7
20210518153504 22 242 20.9 41.8 0.00 0.05 0.03 43 1009.7
20210518153401 22 218 20.9 43.5 0.00 0.05 0.03 44 1009.7
20210518153302 22 238 27.4 43.5 0.00 0.05 0.03 44 1009.7
20210518153204 22 241 30.6 43.5 0.00 0.05 0.03 44 1009.6
20210518153100 22 223 30.6 43.5 0.00 0.05 0.03 43 1009.7
20210518153002 22 238 29.0 43.5 0.00 0.05 0.03 42 1009.7
20210518152903 22 217 29.0 43.5 0.00 0.05 0.03 42 1009.6
20210518152802 23 221 35.4 43.5 0.00 0.05 0.03 42 1009.5
20210518152702 23 211 16.1 43.5 0.00 0.05 0.03 41 1009.6
20210518152604 23 232 17.7 43.5 0.00 0.05 0.03 42 1009.6
20210518152502 23 239 19.3 43.5 0.00 0.05 0.03 42 1009.6
20210518152400 23 225 30.6 43.5 0.00 0.05 0.03 43 1009.6
20210518152305 23 232 24.1 40.2 0.00 0.05 0.03 44 1009.6
20210518152202 23 236 19.3 30.6 0.00 0.05 0.03 46 1009.7
20210518152103 23 225 20.9 29.0 0.00 0.05 0.03 44 1009.6
20210518152007 23 197 27.4 30.6 0.00 0.05 0.03 45 1009.6
20210518151900 23 216 20.9 30.6 0.00 0.05 0.03 44 1009.6
20210518151801 23 221 19.3 30.6 0.00 0.05 0.03 45 1009.6
20210518151703 23 226 22.5 30.6 0.00 0.05 0.03 45 1009.6
20210518151601 23 222 16.1 30.6 0.00 0.05 0.03 44 1009.6
20210518151502 23 227 20.9 33.8 0.00 0.05 0.03 43 1009.6
20210518151404 23 223 24.1 33.8 0.00 0.05 0.03 44 1009.6
20210518151300 23 225 24.1 33.8 0.00 0.05 0.03 44 1009.7
20210518151200 23 257 19.3 33.8 0.00 0.05 0.03 43 1009.7
20210518151104 23 222 19.3 33.8 0.00 0.05 0.03 43 1009.7
20210518151005 23 229 19.3 33.8 0.00 0.05 0.03 43 1009.7
20210518150901 23 242 9.7 33.8 0.00 0.05 0.03 43 1009.7
20210518150804 23 232 27.4 37.0 0.00 0.05 0.03 44 1009.7
20210518150701 23 234 11.3 38.6 0.00 0.05 0.03 44 1009.7
20210518150623 23 210 16.1 38.6 0.00 0.05 0.03 44 1009.7
20210518150503 23 206 17.7 38.6 0.00 0.05 0.03 45 1009.7
20210518150401 23 219 16.1 38.6 0.00 0.05 0.03 44 1009.7
20210518150302 23 219 25.7 38.6 0.00 0.05 0.03 44 1009.7
20210518150200 23 211 14.5 43.5 0.00 0.05 0.03 45 1009.7
20210518150115 22 229 17.7 43.5 0.00 0.05 0.03 44 1009.7
20210518150007 22 224 22.5 43.5 0.00 0.05 0.03 44 1009.7
20210518145901 22 239 16.1 43.5 0.00 0.05 0.03 44 1009.7
20210518145804 22 240 33.8 43.5 0.00 0.05 0.03 45 1009.7
20210518145700 23 236 29.0 43.5 0.00 0.05 0.03 45 1009.8
20210518145600 23 243 19.3 43.5 0.00 0.05 0.03 44 1009.8
20210518145504 23 231 25.7 43.5 0.00 0.05 0.03 43 1009.7
20210518145402 23 240 27.4 43.5 0.00 0.05 0.03 43 1009.8
20210518145300 23 218 22.5 43.5 0.00 0.05 0.03 44 1009.8
20210518145205 23 221 35.4 43.5 0.00 0.05 0.03 46 1009.7
20210518145102 23 223 30.6 43.5 0.00 0.05 0.03 45 1009.7
20210518145003 23 221 35.4 45.1 0.00 0.05 0.03 44 1009.8
20210518144904 23 224 30.6 41.8 0.00 0.05 0.03 44 1009.8
20210518144800 23 229 19.3 40.2 0.00 0.05 0.03 44 1009.8
20210518144702 23 217 17.7 35.4 0.00 0.05 0.03 44 1009.8
20210518144622 23 213 14.5 35.4 0.00 0.05 0.03 43 1009.8
20210518144502 23 201 14.5 35.4 0.00 0.05 0.03 44 1009.8
20210518144402 23 249 25.7 35.4 0.00 0.05 0.03 44 1009.8
20210518144302 23 213 20.9 35.4 0.00 0.05 0.03 45 1009.8
20210518144202 23 232 22.5 35.4 0.00 0.05 0.03 44 1009.8
20210518144101 23 221 24.1 35.4 0.00 0.05 0.03 45 1009.9
20210518144004 23 223 19.3 35.4 0.00 0.05 0.03 47 1009.9
20210518143900 23 220 22.5 37.0 0.00 0.05 0.03 47 1009.9
20210518143802 23 224 25.7 37.0 0.00 0.05 0.03 46 1009.8
20210518143707 23 227 29.0 37.0 0.00 0.05 0.03 46 1009.8
20210518143600 23 238 19.3 37.0 0.00 0.05 0.03 47 1009.8
20210518143503 23 217 14.5 37.0 0.00 0.05 0.03 46 1009.8
20210518143404 23 214 32.2 40.2 0.00 0.05 0.03 46 1009.7
20210518143300 23 217 22.5 40.2 0.00 0.05 0.03 45 1009.8
20210518143201 23 211 17.7 40.2 0.00 0.05 0.03 45 1009.8
20210518143103 23 223 30.6 45.1 0.00 0.05 0.03 45 1009.8
20210518143003 23 225 29.0 45.1 0.00 0.05 0.03 46 1009.9
20210518142901 23 237 22.5 45.1 0.00 0.05 0.03 47 1009.8
20210518142804 23 233 29.0 45.1 0.00 0.05 0.03 46 1009.8
20210518142701 22 234 20.9 45.1 0.00 0.05 0.03 45 1009.9
20210518142600 23 221 27.4 45.1 0.00 0.05 0.03 45 1009.8
20210518142504 23 233 27.4 45.1 0.00 0.05 0.03 45 1009.8
20210518142400 23 231 22.5 45.1 0.00 0.05 0.03 46 1009.8
20210518142305 23 234 20.9 45.1 0.00 0.05 0.03 46 1009.8
20210518142203 23 234 33.8 45.1 0.00 0.05 0.03 44 1009.8
20210518142103 23 216 35.4 45.1 0.00 0.05 0.03 44 1009.9
20210518142003 23 241 20.9 43.5 0.00 0.05 0.03 44 1009.8
20210518141900 23 227 19.3 43.5 0.00 0.05 0.03 46 1009.8
20210518141801 23 215 24.1 43.5 0.00 0.05 0.03 47 1009.8
20210518141704 23 229 24.1 43.5 0.00 0.05 0.03 46 1009.9
20210518141600 23 236 20.9 43.5 0.00 0.05 0.03 46 1009.9
20210518141502 23 227 27.4 43.5 0.00 0.05 0.03 46 1009.8
20210518141402 23 234 16.1 43.5 0.00 0.05 0.03 46 1009.8
20210518141316 23 244 19.3 43.5 0.00 0.05 0.03 47 1009.8
20210518141202 23 245 25.7 43.5 0.00 0.05 0.03 46 1009.9
20210518141105 23 220 30.6 43.5 0.00 0.05 0.03 46 1009.9
20210518141001 23 225 16.1 43.5 0.00 0.05 0.03 46 1010.0
20210518140902 23 229 19.3 43.5 0.00 0.05 0.03 45 1010.0
20210518140804 23 217 29.0 43.5 0.00 0.05 0.03 45 1010.0
20210518140700 23 225 25.7 43.5 0.00 0.05 0.03 46 1010.0
20210518140601 23 235 20.9 43.5 0.00 0.05 0.03 46 1010.1
20210518140504 23 221 27.4 43.5 0.00 0.05 0.03 47 1010.1
20210518140420 23 264 24.1 43.5 0.00 0.05 0.03 46 1010.1
20210518140300 23 229 27.4 43.5 0.00 0.05 0.03 46 1010.1
20210518140225 23 215 32.2 43.5 0.00 0.05 0.03 46 1010.1
20210518140113 23 215 17.7 33.8 0.00 0.05 0.03 46 1010.1
20210518140006 23 250 19.3 33.8 0.00 0.05 0.03 46 1010.1
20210518135904 23 238 22.5 33.8 0.00 0.05 0.03 45 1010.1
20210518135802 23 227 19.3 33.8 0.00 0.05 0.03 45 1010.2
20210518135659 23 243 20.9 33.8 0.00 0.05 0.03 45 1010.2
20210518135602 23 225 19.3 33.8 0.00 0.05 0.03 44 1010.2
20210518135502 23 218 20.9 33.8 0.00 0.05 0.03 45 1010.2
20210518135402 23 211 20.9 32.2 0.00 0.05 0.03 46 1010.2
20210518135305 23 237 22.5 33.8 0.00 0.05 0.03 45 1010.2
20210518135201 23 204 24.1 38.6 0.00 0.05 0.03 44 1010.3
20210518135103 23 142 8.0 41.8 0.00 0.05 0.03 45 1010.3
20210518135004 23 151 19.3 41.8 0.00 0.05 0.03 45 1010.3
20210518134900 23 208 16.1 41.8 0.00 0.05 0.03 45 1010.4
20210518134801 23 213 22.5 41.8 0.00 0.05 0.03 45 1010.4
20210518134702 23 211 24.1 41.8 0.00 0.05 0.03 45 1010.3
20210518134600 23 219 25.7 41.8 0.00 0.05 0.03 45 1010.3
20210518134502 23 234 19.3 41.8 0.00 0.05 0.03 45 1010.2
20210518134404 23 219 27.4 41.8 0.00 0.05 0.03 45 1010.2
20210518134302 23 190 19.3 41.8 0.00 0.05 0.03 44 1010.2
20210518134200 23 246 32.2 41.8 0.00 0.05 0.03 45 1010.4
20210518134102 23 189 24.1 41.8 0.00 0.05 0.03 45 1010.3
20210518134002 23 200 27.4 38.6 0.00 0.05 0.03 45 1010.4
20210518133902 23 228 30.6 38.6 0.00 0.05 0.03 44 1010.4
20210518133803 23 215 19.3 38.6 0.00 0.05 0.03 43 1010.4
20210518133702 23 207 19.3 38.6 0.00 0.05 0.03 44 1010.4
20210518133603 23 214 25.7 40.2 0.00 0.05 0.03 45 1010.4
20210518133504 23 208 35.4 40.2 0.00 0.05 0.03 44 1010.4
20210518133401 23 219 30.6 40.2 0.00 0.05 0.03 44 1010.5
20210518133302 23 200 25.7 40.2 0.00 0.05 0.03 45 1010.4
20210518133202 23 201 17.7 40.2 0.00 0.05 0.03 45 1010.4
20210518133102 23 224 17.7 40.2 0.00 0.05 0.03 45 1010.5
20210518133004 23 216 17.7 40.2 0.00 0.05 0.03 44 1010.5
20210518132904 23 223 32.2 37.0 0.00 0.05 0.03 44 1010.4
20210518132802 23 217 20.9 37.0 0.00 0.05 0.03 44 1010.5
20210518132701 23 222 29.0 37.0 0.00 0.05 0.03 44 1010.5
20210518132603 23 182 9.7 37.0 0.00 0.05 0.03 44 1010.5
20210518132502 23 217 29.0 37.0 0.00 0.05 0.03 44 1010.5
20210518132402 23 214 29.0 35.4 0.00 0.05 0.03 43 1010.5
20210518132305 23 227 14.5 35.4 0.00 0.05 0.03 43 1010.6
20210518132200 23 201 24.1 35.4 0.00 0.05 0.03 44 1010.6
20210518132100 23 228 25.7 35.4 0.00 0.05 0.03 45 1010.6
20210518132009 23 222 20.9 35.4 0.00 0.05 0.03 45 1010.6
20210518131902 23 217 27.4 35.4 0.00 0.05 0.03 44 1010.6
20210518131801 23 244 25.7 35.4 0.00 0.05 0.03 44 1010.7
20210518131704 23 197 11.3 35.4 0.00 0.05 0.03 43 1010.6
20210518131600 23 225 20.9 37.0 0.00 0.05 0.03 44 1010.6
20210518131501 23 224 25.7 37.0 0.00 0.05 0.03 45 1010.6
20210518131403 23 229 16.1 43.5 0.00 0.05 0.03 45 1010.7
20210518131301 23 209 19.3 43.5 0.00 0.05 0.03 45 1010.6
20210518131203 23 243 32.2 43.5 0.00 0.05 0.03 44 1010.7
20210518131104 23 232 35.4 43.5 0.00 0.05 0.03 44 1010.7
20210518131003 23 228 24.1 43.5 0.00 0.05 0.03 44 1010.7
20210518130859 23 249 11.3 43.5 0.00 0.05 0.03 45 1010.8
20210518130803 23 229 14.5 43.5 0.00 0.05 0.03 46 1010.8
20210518130702 23 236 16.1 43.5 0.00 0.05 0.03 45 1010.9
20210518130600 23 237 29.0 43.5 0.00 0.05 0.03 43 1010.8
20210518130502 23 229 32.2 43.5 0.00 0.05 0.03 45 1010.8
20210518130402 23 240 30.6 43.5 0.00 0.05 0.03 45 1010.8
20210518130301 23 247 24.1 35.4 0.00 0.05 0.03 47 1010.8
20210518130204 23 234 17.7 35.4 0.00 0.05 0.03 46 1010.8
20210518130114 23 253 27.4 35.4 0.00 0.05 0.03 46 1010.9
20210518130004 23 261 29.0 35.4 0.00 0.05 0.03 46 1010.8
20210518125902 23 238 20.9 35.4 0.00 0.97 0.03 47 1010.9
20210518125800 23 244 25.7 35.4 0.00 0.97 0.03 47 1010.9
20210518125700 22 234 24.1 35.4 0.00 0.97 0.03 46 1010.9
20210518125619 22 238 22.5 35.4 0.00 0.97 0.03 47 1010.9
20210518125502 22 232 12.9 35.4 0.00 0.97 0.03 47 1010.9
20210518125418 22 224 12.9 35.4 0.00 0.97 0.03 47 1010.9
20210518125313 22 235 19.3 35.4 0.00 0.97 0.03 48 1010.9
20210518125200 22 242 22.5 35.4 0.00 0.97 0.03 47 1010.9
20210518125059 22 225 19.3 35.4 0.00 0.97 0.03 47 1011.0
20210518125005 22 234 25.7 35.4 0.00 0.97 0.03 47 1011.0
20210518124901 22 215 27.4 35.4 0.00 0.97 0.03 47 1011.0
20210518124803 22 239 25.7 33.8 0.00 0.97 0.03 46 1011.0
20210518124704 23 218 25.7 33.8 0.00 0.97 0.03 46 1011.0
20210518124621 23 220 24.1 33.8 0.00 0.97 0.03 46 1011.0
20210518124501 23 223 17.7 33.8 0.00 0.97 0.03 47 1011.0
20210518124404 22 232 25.7 33.8 0.00 0.97 0.03 46 1011.0
20210518124301 22 234 25.7 35.4 0.00 0.97 0.03 45 1011.0
20210518124202 22 242 30.6 35.4 0.00 0.97 0.03 45 1011.0
20210518124103 22 229 25.7 35.4 0.00 0.97 0.03 44 1011.0
20210518124003 22 242 12.9 35.4 0.00 0.97 0.03 45 1011.0
20210518123902 22 210 17.7 35.4 0.00 0.97 0.03 46 1011.0
20210518123804 22 212 24.1 35.4 0.00 0.97 0.03 46 1011.0
20210518123721 22 207 14.5 40.2 0.00 0.97 0.03 47 1011.0
20210518123620 22 234 22.5 40.2 0.00 0.97 0.03 48 1011.1
20210518123504 22 254 24.1 40.2 0.00 0.97 0.03 46 1011.0
20210518123402 22 235 25.7 40.2 0.00 0.97 0.03 46 1011.0
20210518123259 22 232 24.1 40.2 0.00 0.97 0.03 46 1011.0
20210518123220 22 234 24.1 40.2 0.00 0.97 0.03 48 1011.0
20210518123100 22 232 16.1 40.2 0.00 0.97 0.03 48 1011.1
20210518123002 22 203 16.1 40.2 0.00 0.97 0.03 48 1011.1
20210518122902 22 233 11.3 40.2 0.00 0.97 0.03 47 1011.1
20210518122759 22 243 22.5 40.2 0.00 0.97 0.03 47 1011.2
20210518122702 22 232 32.2 40.2 0.00 0.97 0.03 47 1011.2
20210518122602 22 225 35.4 38.6 0.00 0.97 0.03 44 1011.3
20210518122500 22 223 27.4 40.2 0.00 0.97 0.03 47 1011.2
20210518122401 23 228 25.7 40.2 0.00 0.97 0.03 45 1011.2
20210518122305 23 234 30.6 40.2 0.00 0.97 0.03 45 1011.2
20210518122159 23 229 29.0 40.2 0.00 0.97 0.03 47 1011.2
20210518122101 23 216 25.7 40.2 0.00 0.97 0.03 48 1011.2
20210518122006 23 207 19.3 40.2 0.00 0.97 0.03 46 1011.2
20210518121900 23 236 19.3 38.6 0.00 0.97 0.03 46 1011.2
20210518121802 23 241 12.9 38.6 0.00 0.97 0.03 45 1011.2
20210518121722 23 235 20.9 38.6 0.00 0.97 0.03 45 1011.2
20210518121600 23 231 16.1 38.6 0.00 0.97 0.03 45 1011.2
20210518121502 23 236 16.1 38.6 0.00 0.97 0.03 46 1011.2
20210518121404 23 230 25.7 38.6 0.00 0.97 0.03 46 1011.2
20210518121302 23 228 24.1 38.6 0.00 0.97 0.03 45 1011.2
20210518121159 23 242 27.4 38.6 0.00 0.97 0.03 46 1011.2
20210518121102 23 245 25.7 35.4 0.00 0.97 0.03 48 1011.2
20210518121011 23 238 32.2 35.4 0.00 0.97 0.03 47 1011.2
20210518120902 23 214 29.0 35.4 0.00 0.97 0.03 45 1011.2
20210518120802 23 233 19.3 33.8 0.00 0.97 0.03 45 1011.3
20210518120700 23 242 16.1 35.4 0.00 0.97 0.03 47 1011.2
20210518120600 23 236 30.6 35.4 0.00 0.97 0.03 44 1011.2
20210518120505 23 230 25.7 35.4 0.00 0.97 0.03 45 1011.2
20210518120359 23 217 14.5 35.4 0.00 0.97 0.03 45 1011.2
20210518120259 23 239 12.9 35.4 0.00 0.97 0.03 45 1011.2
20210518120201 23 244 14.5 35.4 0.00 0.97 0.03 46 1011.1
20210518120144 23 239 9.7 35.4 0.00 0.97 0.03 47 1011.0
20210518120027 22 230 20.9 35.4 0.00 0.97 0.03 47 1011.0
20210518115900 22 222 19.3 35.4 0.00 0.97 0.03 49 1011.1
20210518115804 22 206 27.4 35.4 0.00 0.97 0.03 48 1011.1
20210518115722 22 223 32.2 35.4 0.00 0.97 0.03 46 1011.1
20210518115608 22 232 24.1 35.4 0.00 0.97 0.03 45 1011.1
20210518115504 22 233 30.6 35.4 0.00 0.97 0.03 47 1011.1
20210518115359 22 246 30.6 35.4 0.00 0.97 0.03 46 1011.1
20210518115304 22 215 27.4 35.4 0.00 0.97 0.03 47 1011.2
20210518115222 23 236 25.7 35.4 0.00 0.97 0.03 47 1011.2
20210518115102 23 232 12.9 35.4 0.00 0.97 0.03 48 1011.3
20210518115001 23 235 30.6 35.4 0.00 0.97 0.03 49 1011.3
20210518114903 23 248 20.9 35.4 0.00 0.97 0.03 48 1011.3
20210518114759 23 223 22.5 35.4 0.00 0.97 0.03 47 1011.3
20210518114701 22 207 20.9 35.4 0.00 0.97 0.03 46 1011.2
20210518114602 23 228 17.7 35.4 0.00 0.97 0.03 47 1011.3
20210518114501 23 215 25.7 35.4 0.00 0.97 0.03 47 1011.3
20210518114401 23 241 30.6 35.4 0.00 0.97 0.03 46 1011.3
20210518114322 23 248 11.3 35.4 0.00 0.97 0.03 46 1011.3
20210518114159 22 214 19.3 35.4 0.00 0.97 0.03 48 1011.2
20210518114100 22 233 24.1 35.4 0.00 0.97 0.03 49 1011.2
20210518114006 22 220 30.6 35.4 0.00 0.97 0.03 48 1011.2
20210518113900 22 223 24.1 35.4 0.00 0.97 0.03 50 1011.2
20210518113803 22 252 17.7 35.4 0.00 0.97 0.03 48 1011.3
20210518113704 22 227 20.9 35.4 0.00 0.97 0.03 46 1011.3
20210518113601 22 222 25.7 35.4 0.00 0.97 0.03 46 1011.4
20210518113517 22 234 32.2 33.8 0.00 0.97 0.03 45 1011.4
20210518113404 22 217 12.9 33.8 0.00 0.97 0.03 47 1011.4
20210518113301 22 243 25.7 33.8 0.00 0.97 0.03 48 1011.3
20210518113201 22 209 27.4 33.8 0.00 0.97 0.03 49 1011.4
20210518113100 22 233 25.7 33.8 0.00 0.97 0.03 48 1011.4
20210518112902 22 219 14.5 33.8 0.00 0.97 0.03 48 1011.4
20210518112800 22 218 20.9 35.4 0.00 0.97 0.03 46 1011.4
20210518112700 22 227 16.1 35.4 0.00 0.97 0.03 47 1011.4
20210518112603 22 230 29.0 35.4 0.00 0.97 0.03 47 1011.4
20210518112500 22 229 14.5 35.4 0.00 0.97 0.03 49 1011.4
20210518112359 22 218 29.0 35.4 0.00 0.97 0.03 50 1011.5
20210518112306 22 232 20.9 35.4 0.00 0.97 0.03 50 1011.5
20210518112159 22 178 8.0 35.4 0.00 0.97 0.03 49 1011.5
20210518112100 22 204 9.7 35.4 0.00 0.97 0.03 49 1011.5
20210518112006 23 197 11.3 35.4 0.00 0.97 0.03 49 1011.5
20210518111921 23 217 25.7 35.4 0.00 0.97 0.03 50 1011.6
20210518111800 23 229 24.1 32.2 0.00 0.97 0.03 50 1011.6
20210518111702 23 221 14.5 32.2 0.00 0.97 0.03 48 1011.6
20210518111600 23 225 8.0 32.2 0.00 0.97 0.03 49 1011.6
20210518111500 23 219 16.1 32.2 0.00 0.97 0.03 49 1011.6
20210518111402 23 207 17.7 32.2 0.00 0.97 0.03 49 1011.6
20210518111300 22 218 22.5 32.2 0.00 0.97 0.03 49 1011.6
20210518111159 22 221 22.5 30.6 0.00 0.97 0.03 49 1011.7
20210518111122 22 251 24.1 30.6 0.00 0.97 0.03 48 1011.7
20210518111001 22 217 11.3 35.4 0.00 0.97 0.03 47 1011.6
20210518110900 22 184 14.5 35.4 0.00 0.97 0.03 47 1011.7
20210518110802 22 219 14.5 35.4 0.00 0.97 0.03 47 1011.6
20210518110700 22 202 11.3 35.4 0.00 0.97 0.03 49 1011.6
20210518110600 22 209 16.1 35.4 0.00 0.97 0.03 49 1011.6
20210518110502 22 210 17.7 35.4 0.00 0.97 0.03 53 1011.6
20210518110400 22 229 17.7 35.4 0.00 0.97 0.03 49 1011.6
20210518110300 22 238 17.7 35.4 0.00 0.97 0.03 48 1011.6
20210518110159 22 222 16.1 35.4 0.00 0.97 0.03 50 1011.6
20210518110127 22 234 22.5 33.8 0.00 0.97 0.03 50 1011.7
20210518110005 22 222 27.4 29.0 0.00 0.97 0.03 49 1011.7
20210518105907 22 207 20.9 29.0 0.00 0.97 0.03 50 1011.7
20210518105802 22 204 14.5 29.0 0.00 0.97 0.03 49 1011.7
20210518105700 22 221 17.7 32.2 0.00 0.97 0.03 50 1011.7
20210518105600 22 222 20.9 27.4 0.00 0.97 0.03 49 1011.7
20210518105503 22 232 12.9 32.2 0.00 0.97 0.03 49 1011.8
20210518105400 22 222 16.1 32.2 0.00 0.97 0.03 49 1011.8
20210518105300 22 234 16.1 37.0 0.00 0.97 0.03 50 1011.9
20210518105202 22 226 22.5 37.0 0.00 0.97 0.03 51 1011.9
20210518105059 22 233 30.6 37.0 0.00 0.97 0.03 51 1011.8
20210518105001 22 220 16.1 37.0 0.00 0.97 0.03 52 1011.8
20210518104903 22 242 9.7 37.0 0.00 0.97 0.03 52 1011.8
20210518104800 22 246 19.3 37.0 0.00 0.97 0.03 52 1011.8
20210518104700 22 246 17.7 37.0 0.00 0.97 0.03 51 1011.8
20210518104603 22 232 20.9 37.0 0.00 0.97 0.03 51 1011.8
20210518104501 22 225 27.4 37.0 0.00 0.97 0.03 54 1011.9
20210518104401 22 215 25.7 37.0 0.00 0.97 0.03 53 1011.8
20210518104303 22 234 27.4 37.0 0.00 0.97 0.03 51 1011.9
20210518104201 22 219 20.9 37.0 0.00 0.97 0.03 52 1011.9
20210518104100 22 248 17.7 37.0 0.00 0.97 0.03 51 1011.9
20210518104004 22 227 29.0 37.0 0.00 0.97 0.03 51 1011.9
20210518103900 22 217 29.0 37.0 0.00 0.97 0.03 51 1012.0
20210518103800 22 212 20.9 37.0 0.00 0.97 0.03 52 1012.0
20210518103503 22 199 17.7 30.6 0.00 0.97 0.03 52 1012.0
20210518103400 22 211 32.2 32.2 0.00 0.97 0.03 51 1012.0
20210518103302 22 214 16.1 30.6 0.00 0.97 0.03 51 1012.0
20210518103202 22 219 29.0 32.2 0.00 0.97 0.03 54 1012.0
20210518103102 22 233 19.3 32.2 0.00 0.97 0.03 57 1012.0
20210518103004 22 222 14.5 32.2 0.00 0.97 0.03 57 1012.0
20210518102904 22 232 25.7 32.2 0.00 0.97 0.03 55 1012.0
20210518102801 22 257 14.5 32.2 0.00 0.97 0.03 52 1012.0
20210518102659 22 242 14.5 32.2 0.00 0.97 0.03 53 1012.0
20210518102604 22 216 12.9 32.2 0.00 0.97 0.03 54 1012.0
20210518102500 22 223 17.7 32.2 0.00 0.97 0.03 53 1012.0
20210518102400 22 231 12.9 32.2 0.00 0.97 0.03 52 1012.0
20210518102305 22 240 27.4 32.2 0.00 0.97 0.03 53 1012.0
20210518102159 22 244 12.9 33.8 0.00 0.97 0.03 53 1012.0
20210518102102 22 266 22.5 33.8 0.00 0.97 0.03 53 1011.9
20210518102007 21 228 22.5 35.4 0.00 0.97 0.03 53 1011.9
20210518101902 21 223 14.5 35.4 0.00 0.97 0.03 52 1012.0
20210518101800 21 228 14.5 35.4 0.00 0.97 0.03 52 1012.0
20210518101703 22 223 14.5 35.4 0.00 0.97 0.03 52 1012.1
20210518101601 21 207 11.3 35.4 0.00 0.97 0.03 53 1012.1
20210518101500 21 219 14.5 35.4 0.00 0.97 0.03 53 1012.1
20210518101404 21 232 20.9 35.4 0.00 0.97 0.03 53 1012.1
20210518101300 21 227 25.7 35.4 0.00 0.97 0.03 54 1012.2
20210518101201 21 227 30.6 35.4 0.00 0.97 0.03 53 1012.2
20210518101102 21 228 24.1 35.4 0.00 0.97 0.03 53 1012.2
20210518101007 21 211 16.1 35.4 0.00 0.97 0.03 53 1012.2
20210518100901 21 215 22.5 35.4 0.00 0.97 0.03 54 1012.2
20210518100803 21 231 14.5 35.4 0.00 0.97 0.03 52 1012.2
20210518100700 21 192 14.5 35.4 0.00 0.97 0.03 53 1012.3
20210518100600 21 216 25.7 35.4 0.00 0.97 0.03 52 1012.2
20210518100502 21 218 19.3 35.4 0.00 0.97 0.03 53 1012.2
20210518100400 21 212 29.0 35.4 0.00 0.97 0.03 52 1012.2
20210518100302 21 222 27.4 33.8 0.00 0.97 0.03 54 1012.2
20210518100204 21 214 14.5 33.8 0.00 0.97 0.03 54 1012.2
20210518100112 21 208 25.7 33.8 0.00 0.97 0.03 53 1012.2
20210518100005 21 236 22.5 33.8 0.00 0.97 0.03 53 1012.2
20210518095904 21 211 14.5 33.8 0.00 0.97 0.03 52 1012.2
20210518095821 21 240 29.0 35.4 0.00 0.97 0.03 52 1012.2
20210518095659 21 221 27.4 35.4 0.00 0.97 0.03 54 1012.2
20210518095603 21 221 16.1 35.4 0.00 0.97 0.03 53 1012.2
20210518095502 21 236 16.1 35.4 0.00 0.97 0.03 53 1012.1
20210518095400 21 228 25.7 35.4 0.00 0.97 0.03 53 1012.1
20210518095305 21 240 16.1 35.4 0.00 0.97 0.03 53 1012.2
20210518095201 21 225 24.1 35.4 0.00 0.97 0.03 52 1012.2
20210518095101 21 223 25.7 35.4 0.00 0.97 0.03 54 1012.2
20210518095006 21 206 19.3 35.4 0.00 0.97 0.03 53 1012.2
20210518094900 21 232 20.9 35.4 0.00 0.97 0.03 53 1012.2
20210518094800 21 222 22.5 33.8 0.00 0.97 0.03 53 1012.2
20210518094704 22 209 20.9 29.0 0.00 0.97 0.03 54 1012.2
20210518094600 22 218 11.3 29.0 0.00 0.97 0.03 55 1012.2
20210518094522 22 230 19.3 29.0 0.00 0.97 0.03 55 1012.2
20210518094422 21 229 14.5 29.0 0.00 0.97 0.03 54 1012.2
20210518094300 21 188 9.7 32.2 0.00 0.97 0.03 54 1012.2
20210518094201 21 261 6.4 32.2 0.00 0.97 0.03 54 1012.2
20210518094104 22 227 16.1 32.2 0.00 0.97 0.03 53 1012.1
20210518094006 22 239 14.5 33.8 0.00 0.97 0.03 54 1012.1
20210518093859 21 226 11.3 33.8 0.00 0.97 0.03 56 1012.1
20210518093802 21 230 25.7 33.8 0.00 0.97 0.03 55 1012.1
20210518093700 21 215 19.3 33.8 0.00 0.97 0.03 55 1012.1
20210518093600 21 227 19.3 33.8 0.00 0.97 0.03 53 1012.1
20210518093504 21 225 25.7 33.8 0.00 0.97 0.03 53 1012.1
20210518093421 21 210 20.9 35.4 0.00 0.97 0.03 53 1012.1
20210518093300 21 254 19.3 35.4 0.00 0.97 0.03 58 1012.1
20210518093202 21 224 25.7 35.4 0.00 0.97 0.03 55 1012.1
20210518093101 21 219 19.3 35.4 0.00 0.97 0.03 55 1012.1
20210518093001 21 234 25.7 35.4 0.00 0.97 0.03 54 1012.1
20210518092903 21 225 19.3 35.4 0.00 0.97 0.03 54 1012.0
20210518092759 21 225 27.4 35.4 0.00 0.97 0.03 55 1012.0
20210518092702 21 172 20.9 35.4 0.00 0.97 0.03 54 1012.0
20210518092603 21 217 27.4 35.4 0.00 0.97 0.03 55 1012.0
20210518092500 21 221 25.7 35.4 0.00 0.97 0.03 54 1012.0
20210518092400 21 237 33.8 40.2 0.00 0.97 0.03 53 1012.0
20210518092305 21 241 19.3 40.2 0.00 0.97 0.03 55 1012.0
20210518092200 21 224 30.6 40.2 0.00 0.97 0.03 55 1012.0
20210518092100 21 223 25.7 40.2 0.00 0.97 0.03 56 1012.0
20210518092004 21 221 24.1 40.2 0.00 0.97 0.03 56 1012.0
20210518091900 21 215 17.7 40.2 0.00 0.97 0.03 56 1012.0
20210518091820 21 229 24.1 40.2 0.00 0.97 0.03 54 1012.0
20210518091703 21 232 22.5 40.2 0.00 0.97 0.03 55 1012.0
20210518091601 21 215 19.3 40.2 0.00 0.97 0.03 55 1012.0
20210518091500 21 215 19.3 40.2 0.00 0.97 0.03 55 1012.1
20210518091405 21 215 24.1 32.2 0.00 0.97 0.03 58 1012.1
20210518091302 21 135 12.9 29.0 0.00 0.97 0.03 57 1012.0
20210518091201 21 190 25.7 29.0 0.00 0.97 0.03 57 1012.0
20210518091105 21 240 27.4 32.2 0.00 0.97 0.03 55 1012.0
20210518091001 21 251 20.9 32.2 0.00 0.97 0.03 56 1011.9
20210518090901 21 242 24.1 32.2 0.00 0.97 0.03 56 1011.9
20210518090802 21 233 17.7 32.2 0.00 0.97 0.03 57 1011.9
20210518090721 21 238 11.3 33.8 0.00 0.97 0.03 59 1011.9
20210518090621 21 238 20.9 33.8 0.00 0.97 0.03 58 1011.8
20210518090504 21 236 17.7 33.8 0.00 0.97 0.03 56 1011.8
20210518090421 21 246 22.5 33.8 0.00 0.97 0.03 56 1011.8
20210518090300 21 238 29.0 33.8 0.00 0.97 0.03 56 1011.8
20210518090203 21 223 17.7 33.8 0.00 0.97 0.03 55 1011.8
20210518090112 21 223 27.4 33.8 0.00 0.97 0.03 57 1011.8
20210518090005 21 192 19.3 33.8 0.00 0.97 0.03 57 1011.8
20210518085903 21 219 17.7 33.8 0.00 0.97 0.03 57 1011.9
20210518085800 21 234 27.4 33.8 0.00 0.97 0.03 57 1011.8
20210518085701 21 225 22.5 33.8 0.00 0.97 0.03 56 1011.9
20210518085602 21 236 20.9 30.6 0.00 0.97 0.03 57 1011.8
20210518085502 21 231 27.4 35.4 0.00 0.97 0.03 57 1011.8
20210518085400 21 240 14.5 35.4 0.00 0.97 0.03 56 1011.8
20210518085306 21 224 22.5 35.4 0.00 0.97 0.03 57 1011.8
20210518085159 21 246 22.5 35.4 0.00 0.97 0.03 57 1011.8
20210518085101 21 221 24.1 35.4 0.00 0.97 0.03 57 1011.8
20210518085007 21 219 12.9 35.4 0.00 0.97 0.03 58 1011.8
20210518084902 21 226 20.9 35.4 0.00 0.97 0.03 58 1011.8
20210518084801 21 234 17.7 35.4 0.00 0.97 0.03 57 1011.9
20210518084704 21 221 19.3 35.4 0.00 0.97 0.03 57 1011.9
20210518084601 21 217 20.9 35.4 0.00 0.97 0.03 57 1011.9
20210518084503 21 214 29.0 35.4 0.00 0.97 0.03 57 1011.9
20210518084403 21 243 19.3 35.4 0.00 0.97 0.03 57 1011.9
20210518084300 21 236 27.4 35.4 0.00 0.97 0.03 56 1011.8
20210518084201 21 238 24.1 35.4 0.00 0.97 0.03 57 1011.8
20210518084104 21 215 19.3 35.4 0.00 0.97 0.03 57 1011.9
20210518084005 21 231 16.1 35.4 0.00 0.97 0.03 58 1011.9
20210518083900 21 227 20.9 35.4 0.00 0.97 0.03 59 1011.9
20210518083804 21 236 20.9 29.0 0.00 0.97 0.03 59 1011.9
20210518083701 21 235 16.1 29.0 0.00 0.97 0.03 58 1011.9
20210518083601 20 232 22.5 30.6 0.00 0.97 0.03 58 1011.9
20210518083503 20 234 24.1 30.6 0.00 0.97 0.03 59 1011.9
20210518083401 20 235 17.7 30.6 0.00 0.97 0.03 60 1011.9
20210518083302 20 215 9.7 30.6 0.00 0.97 0.03 59 1011.9
20210518083203 20 246 27.4 35.4 0.00 0.97 0.03 58 1011.9
20210518083101 20 229 19.3 35.4 0.00 0.97 0.03 57 1011.9
20210518083004 20 232 17.7 35.4 0.00 0.97 0.03 57 1011.9
20210518082903 20 228 11.3 35.4 0.00 0.97 0.03 57 1011.9
20210518082802 20 224 14.5 35.4 0.00 0.97 0.03 57 1011.9
20210518082700 20 223 17.7 35.4 0.00 0.97 0.03 58 1011.9
20210518082602 20 201 17.7 35.4 0.00 0.97 0.03 58 1011.9
20210518082501 20 205 25.7 35.4 0.00 0.97 0.03 57 1011.9
20210518082401 20 215 24.1 35.4 0.00 0.97 0.03 58 1011.8
20210518082305 20 192 12.9 35.4 0.00 0.97 0.03 57 1011.9
20210518082202 20 227 32.2 33.8 0.00 0.97 0.03 57 1011.9
20210518082101 20 243 19.3 30.6 0.00 0.97 0.03 58 1012.0
20210518082006 20 225 17.7 30.6 0.00 0.97 0.03 58 1012.0
20210518081901 20 218 24.1 35.4 0.00 0.97 0.03 58 1012.0
20210518081801 20 218 24.1 35.4 0.00 0.97 0.03 58 1012.0
20210518081703 20 200 19.3 35.4 0.00 0.97 0.03 58 1012.0
20210518081601 20 223 20.9 35.4 0.00 0.97 0.03 58 1012.0
20210518081501 20 213 27.4 35.4 0.00 0.97 0.03 58 1012.1
20210518081403 20 213 30.6 35.4 0.00 0.97 0.03 58 1012.1
20210518081301 20 225 17.7 37.0 0.00 0.97 0.03 58 1012.1
20210518081202 20 221 16.1 37.0 0.00 0.97 0.03 58 1012.1
20210518081102 20 233 32.2 37.0 0.00 0.97 0.03 59 1012.1
20210518081030 20 225 25.7 37.0 0.00 0.97 0.03 59 1012.1
20210518080900 20 226 20.9 37.0 0.00 0.97 0.03 60 1012.1
20210518080803 20 243 17.7 37.0 0.00 0.97 0.03 60 1012.1
20210518080701 20 229 22.5 37.0 0.00 0.97 0.03 60 1012.1
20210518080601 20 224 22.5 37.0 0.00 0.97 0.03 60 1012.1
20210518080503 20 225 14.5 37.0 0.00 0.97 0.03 60 1012.1
20210518080401 20 224 16.1 37.0 0.00 0.97 0.03 60 1012.1
20210518080300 20 230 27.4 33.8 0.00 0.97 0.03 60 1012.1
20210518080221 20 198 19.3 33.8 0.00 0.97 0.03 60 1012.1
20210518080112 20 241 22.5 33.8 0.00 0.97 0.03 60 1012.2
20210518080004 20 236 20.9 33.8 0.00 0.97 0.03 60 1012.2
20210518075903 20 233 24.1 33.8 0.00 0.97 0.03 60 1012.2
20210518075800 20 190 16.1 33.8 0.00 0.97 0.03 60 1012.2
20210518075702 20 215 19.3 33.8 0.00 0.97 0.03 60 1012.1
20210518075604 20 226 19.3 33.8 0.00 0.97 0.03 60 1012.1
20210518075502 20 193 24.1 33.8 0.00 0.97 0.03 60 1012.1
20210518075401 20 251 22.5 33.8 0.00 0.97 0.03 61 1012.2
20210518075305 20 229 24.1 33.8 0.00 0.97 0.03 60 1012.1
20210518075200 20 243 27.4 33.8 0.00 0.97 0.03 59 1012.2
20210518075100 20 236 22.5 38.6 0.00 0.97 0.03 61 1012.2
20210518075007 20 213 30.6 38.6 0.00 0.97 0.03 60 1012.2
20210518074921 20 224 24.1 38.6 0.00 0.97 0.03 60 1012.2
20210518074801 20 213 19.3 38.6 0.00 0.97 0.03 60 1012.2
20210518074703 20 219 22.5 38.6 0.00 0.97 0.03 59 1012.2
20210518074601 20 209 11.3 38.6 0.00 0.97 0.03 60 1012.2
20210518074503 20 239 14.5 38.6 0.00 0.97 0.03 60 1012.1
20210518074404 20 223 22.5 38.6 0.00 0.97 0.03 60 1012.1
20210518074301 20 193 12.9 38.6 0.00 0.97 0.03 60 1012.1
20210518074221 20 216 22.5 38.6 0.00 0.97 0.03 60 1012.1
20210518074103 20 219 38.6 40.2 0.00 0.97 0.03 59 1012.1
20210518074002 20 213 20.9 40.2 0.00 0.97 0.03 59 1012.0
20210518073901 20 239 17.7 40.2 0.00 0.97 0.03 60 1012.0
20210518073803 20 254 27.4 40.2 0.00 0.97 0.03 60 1012.0
20210518073701 20 227 32.2 40.2 0.00 0.97 0.03 60 1012.0
20210518073601 20 215 17.7 41.8 0.00 0.97 0.03 59 1012.0
20210518073503 20 223 27.4 41.8 0.00 0.97 0.03 60 1012.1
20210518073400 20 241 19.3 41.8 0.00 0.97 0.03 59 1012.0
20210518073301 19 232 32.2 41.8 0.00 0.97 0.03 58 1012.1
20210518073204 19 222 27.4 41.8 0.00 0.97 0.03 58 1012.0
20210518073102 19 244 29.0 41.8 0.00 0.97 0.03 59 1012.0
20210518073004 19 241 32.2 41.8 0.00 0.97 0.03 59 1011.9
20210518072903 19 202 25.7 41.8 0.00 0.97 0.03 60 1011.9
20210518072801 19 221 24.1 41.8 0.00 0.97 0.03 59 1011.9
20210518072700 19 229 33.8 41.8 0.00 0.97 0.03 58 1011.8
20210518072603 19 233 27.4 40.2 0.00 0.97 0.03 59 1011.8
20210518072504 19 221 37.0 40.2 0.00 0.97 0.03 59 1011.9
20210518072403 19 221 20.9 40.2 0.00 0.97 0.03 59 1011.8
20210518072305 19 213 25.7 40.2 0.00 0.97 0.03 59 1011.9
20210518072200 19 219 40.2 40.2 0.00 0.97 0.03 59 1011.9
20210518072123 19 224 32.2 38.6 0.00 0.97 0.03 59 1011.9
20210518072006 19 230 27.4 37.0 0.00 0.97 0.03 59 1011.9
20210518071901 19 224 30.6 35.4 0.00 0.97 0.03 59 1011.9
20210518071800 19 231 25.7 35.4 0.00 0.97 0.03 59 1011.9
20210518071703 19 244 20.9 35.4 0.00 0.97 0.03 59 1012.0
20210518071601 19 214 27.4 33.8 0.00 0.97 0.03 60 1011.9
20210518071501 19 227 22.5 32.2 0.00 0.97 0.03 60 1012.0
20210518071403 19 212 24.1 32.2 0.00 0.97 0.03 60 1011.9
20210518071301 19 227 14.5 32.2 0.00 0.97 0.03 59 1011.9
20210518071220 19 230 12.9 32.2 0.00 0.97 0.03 59 1011.9
20210518071105 19 234 22.5 32.2 0.00 0.97 0.03 60 1011.9
20210518071002 19 202 17.7 32.2 0.00 0.97 0.03 61 1011.9
20210518070901 19 209 25.7 32.2 0.00 0.97 0.03 60 1011.9
20210518070803 19 219 25.7 32.2 0.00 0.97 0.03 60 1011.9
20210518070700 19 230 19.3 30.6 0.00 0.97 0.03 60 1011.9
20210518070601 19 225 20.9 30.6 0.00 0.97 0.03 60 1011.9
20210518070503 19 236 12.9 30.6 0.00 0.97 0.03 60 1011.9
20210518070401 19 221 14.5 30.6 0.00 0.97 0.03 59 1011.9
20210518070321 19 235 22.5 30.6 0.00 0.97 0.03 59 1011.9
20210518070222 19 238 25.7 30.6 0.00 0.97 0.03 59 1011.9
20210518070112 19 235 22.5 30.6 0.00 0.97 0.03 60 1012.0
20210518070005 19 230 24.1 30.6 0.00 0.97 0.03 60 1012.0
20210518065903 19 234 14.5 30.6 0.00 0.97 0.03 60 1012.0
20210518065800 19 205 11.3 30.6 0.00 0.97 0.03 61 1011.9
20210518065702 18 211 19.3 29.0 0.00 0.97 0.03 61 1011.9
20210518065603 18 223 19.3 27.4 0.00 0.97 0.03 63 1011.9
20210518065502 18 229 19.3 27.4 0.00 0.97 0.03 63 1011.9
20210518065401 18 215 17.7 27.4 0.00 0.97 0.03 63 1011.9
20210518065305 18 211 20.9 27.4 0.00 0.97 0.03 63 1011.9
20210518065201 18 227 17.7 22.5 0.00 0.97 0.03 63 1011.9
20210518065101 18 207 12.9 17.7 0.00 0.97 0.03 64 1011.9
20210518065006 18 213 9.7 17.7 0.00 0.97 0.03 64 1011.9
20210518064859 18 219 6.4 17.7 0.00 0.97 0.03 64 1011.9
20210518064802 18 217 16.1 17.7 0.00 0.97 0.03 64 1011.9
20210518064703 18 240 17.7 17.7 0.00 0.97 0.03 64 1011.9
20210518064601 18 223 12.9 14.5 0.00 0.97 0.03 64 1011.9
20210518064502 18 251 3.2 6.4 0.00 0.97 0.03 65 1011.9
20210518064403 18 22 3.2 6.4 0.00 0.97 0.03 64 1011.9
20210518064300 18 22 3.2 6.4 0.00 0.97 0.03 64 1011.8
20210518064201 18 36 3.2 6.4 0.00 0.97 0.03 64 1011.8
20210518064102 18 44 4.8 11.3 0.00 0.97 0.03 64 1011.8
20210518064003 18 43 4.8 11.3 0.00 0.97 0.03 65 1011.9
20210518063900 18 43 1.6 11.3 0.00 0.97 0.03 64 1011.9
20210518063803 17 43 3.2 11.3 0.00 0.97 0.03 65 1011.9
20210518063702 17 63 3.2 11.3 0.00 0.97 0.03 65 1011.9
20210518063600 17 88 4.8 11.3 0.00 0.97 0.03 65 1011.9
20210518063504 17 125 3.2 11.3 0.00 0.97 0.03 66 1011.9
20210518063401 17 149 1.6 11.3 0.00 0.97 0.03 66 1011.9
20210518063301 17 148 6.4 11.3 0.00 0.97 0.03 67 1011.9
20210518063203 17 166 1.6 11.3 0.03 0.97 0.03 65 1011.9
20210518063102 17 148 4.8 11.3 0.03 0.97 0.03 65 1011.8
20210518063002 17 71 3.2 11.3 0.03 0.97 0.03 65 1011.8
20210518062903 17 360 3.2 11.3 0.03 0.97 0.03 65 1011.9
20210518062802 17 360 3.2 11.3 0.03 0.97 0.03 65 1011.8
20210518062702 17 246 0.0 11.3 0.03 0.97 0.03 65 1011.7
20210518062603 17 256 4.8 11.3 0.03 0.97 0.03 66 1011.7
20210518062501 17 23 1.6 11.3 0.03 0.97 0.03 66 1011.7
20210518062401 17 68 3.2 11.3 0.03 0.97 0.03 67 1011.7
20210518062306 17 67 4.8 11.3 0.03 0.97 0.03 68 1011.6
20210518062201 17 67 4.8 11.3 0.03 0.97 0.03 67 1011.6
20210518062101 17 66 6.4 11.3 0.03 0.97 0.03 67 1011.6
20210518062030 17 58 6.4 9.7 0.03 0.97 0.03 67 1011.6
20210518061901 17 22 1.6 12.9 0.03 0.97 0.03 67 1011.6
20210518061802 17 37 4.8 12.9 0.03 0.97 0.03 67 1011.6
20210518061702 17 326 4.8 12.9 0.03 0.97 0.03 67 1011.6
20210518061601 17 309 6.4 12.9 0.03 0.97 0.03 67 1011.6
20210518061501 17 19 3.2 12.9 0.03 0.97 0.03 66 1011.6
20210518061405 17 19 4.8 14.5 0.03 0.97 0.03 66 1011.6
20210518061301 17 53 6.4 14.5 0.03 0.97 0.03 65 1011.6
20210518061200 17 42 3.2 14.5 0.03 0.97 0.03 66 1011.6
20210518061104 17 48 3.2 14.5 0.03 0.97 0.03 66 1011.6
20210518061001 17 49 0.0 14.5 0.03 0.97 0.03 66 1011.6
20210518060900 17 88 11.3 14.5 0.03 0.97 0.03 66 1011.6
20210518060804 17 28 3.2 14.5 0.03 0.97 0.03 66 1011.6
20210518060702 17 70 3.2 16.1 0.03 0.97 0.03 66 1011.5
20210518060602 17 195 1.6 20.9 0.03 0.97 0.03 66 1011.6
20210518060504 17 216 6.4 20.9 0.03 0.97 0.03 66 1011.5
20210518060401 17 130 8.0 20.9 0.03 0.97 0.03 66 1011.5
20210518060321 17 216 1.6 22.5 0.03 0.97 0.03 66 1011.5
20210518060204 17 214 1.6 27.4 0.03 0.97 0.03 66 1011.5
20210518060111 17 196 4.8 27.4 0.03 0.97 0.03 66 1011.5
20210518060003 17 188 6.4 27.4 0.03 0.97 0.03 66 1011.5
20210518055907 17 217 14.5 27.4 0.03 0.97 0.03 66 1011.5
20210518055802 17 219 12.9 27.4 0.03 0.97 0.03 66 1011.4
20210518055700 17 217 11.3 27.4 0.03 0.97 0.03 67 1011.4
20210518055605 17 223 17.7 27.4 0.03 0.97 0.03 67 1011.4
20210518055501 16 215 11.3 27.4 0.03 0.97 0.03 67 1011.4
20210518055401 16 224 16.1 32.2 0.03 0.97 0.03 67 1011.4
20210518055304 16 217 20.9 32.2 0.03 0.97 0.03 67 1011.4
20210518055200 16 225 22.5 32.2 0.03 0.97 0.03 66 1011.4
20210518055102 16 206 12.9 32.2 0.03 0.97 0.03 67 1011.4
20210518055003 16 220 22.5 32.2 0.03 0.97 0.03 67 1011.4
20210518054901 16 222 17.7 32.2 0.03 0.97 0.03 66 1011.4
20210518054800 16 210 12.9 32.2 0.03 0.97 0.03 67 1011.4
20210518054703 16 226 14.5 32.2 0.03 0.97 0.03 67 1011.4
20210518054603 16 221 16.1 32.2 0.03 0.97 0.03 67 1011.4
20210518054504 16 219 14.5 32.2 0.03 0.97 0.03 67 1011.4
20210518054402 16 232 20.9 32.2 0.03 0.97 0.03 66 1011.3
20210518054300 16 227 11.3 32.2 0.03 0.97 0.03 66 1011.3
20210518054201 16 222 11.3 32.2 0.03 0.97 0.03 67 1011.3
20210518054103 16 234 22.5 32.2 0.03 0.97 0.03 67 1011.4
20210518054002 16 205 22.5 32.2 0.03 0.97 0.03 67 1011.4
20210518053901 16 205 11.3 32.2 0.03 0.97 0.03 67 1011.4
20210518053803 16 236 19.3 32.2 0.03 0.97 0.03 68 1011.4
20210518053700 16 224 30.6 32.2 0.03 0.97 0.03 68 1011.4
20210518053601 16 211 22.5 27.4 0.03 0.97 0.03 68 1011.5
20210518053503 16 223 11.3 25.7 0.03 0.97 0.03 68 1011.4
20210518053400 16 217 24.1 25.7 0.03 0.97 0.03 69 1011.4
20210518053301 16 213 14.5 25.7 0.00 0.94 0.00 70 1011.4
20210518053204 16 222 11.3 25.7 0.00 0.94 0.00 71 1011.4
20210518053117 16 231 16.1 25.7 0.00 0.94 0.00 71 1011.4
20210518053003 15 217 19.3 24.1 0.00 0.94 0.00 72 1011.3
20210518052903 15 225 20.9 24.1 0.00 0.94 0.00 72 1011.4
20210518052801 15 245 17.7 24.1 0.00 0.94 0.00 74 1011.4
20210518052702 15 225 17.7 24.1 0.00 0.94 0.00 74 1011.4
20210518052603 15 221 17.7 24.1 0.00 0.94 0.00 75 1011.3
20210518052521 15 228 14.5 24.1 0.00 0.94 0.00 76 1011.3
20210518052400 15 207 16.1 24.1 0.00 0.94 0.00 77 1011.3
20210518052305 14 227 16.1 24.1 0.00 0.94 0.00 78 1011.4
20210518052201 14 211 11.3 24.1 0.00 0.94 0.00 80 1011.4
20210518052100 13 228 19.3 24.1 0.00 0.94 0.00 80 1011.4
20210518052023 13 223 17.7 24.1 0.00 0.94 0.00 80 1011.4
20210518051900 13 212 12.9 20.9 0.00 0.94 0.00 82 1011.4
20210518051819 13 228 16.1 19.3 0.00 0.94 0.00 83 1011.4
20210518051721 13 213 6.4 19.3 0.00 0.94 0.00 83 1011.4
20210518051601 12 213 6.4 12.9 0.00 0.94 0.00 84 1011.4
20210518051459 12 229 4.8 9.7 0.00 0.94 0.00 84 1011.4
20210518051403 12 197 4.8 8.0 0.00 0.94 0.00 85 1011.4
20210518051301 12 255 6.4 6.4 0.00 0.94 0.00 85 1011.4
20210518051201 12 192 1.6 3.2 0.00 0.94 0.00 86 1011.3
20210518051103 11 194 1.6 3.2 0.00 0.94 0.00 86 1011.3
20210518051001 11 194 1.6 3.2 0.00 0.94 0.00 86 1011.3
20210518050901 11 195 3.2 3.2 0.00 0.94 0.00 86 1011.3
20210518050805 11 194 1.6 4.8 0.00 0.94 0.00 87 1011.2
20210518050701 11 195 0.0 4.8 0.00 0.94 0.00 87 1011.3
20210518050601 10 198 0.0 4.8 0.00 0.94 0.00 87 1011.3
20210518050503 10 198 0.0 4.8 0.00 0.94 0.00 86 1011.2
20210518050400 10 198 0.0 4.8 0.00 0.94 0.00 86 1011.3
20210518050300 10 198 0.0 4.8 0.00 0.94 0.00 86 1011.3
20210518050200 10 199 0.0 6.4 0.00 0.94 0.00 86 1011.3
20210518050116 10 199 1.6 6.4 0.00 0.94 0.00 85 1011.3
20210518050004 10 199 0.0 6.4 0.00 0.94 0.00 85 1011.3
20210518045901 10 199 3.2 6.4 0.00 0.94 0.00 85 1011.3
20210518045802 10 199 1.6 6.4 0.00 0.94 0.00 85 1011.3
20210518045700 10 205 1.6 6.4 0.00 0.94 0.00 85 1011.2
20210518045602 10 204 1.6 6.4 0.00 0.94 0.00 85 1011.3
20210518045504 10 205 1.6 6.4 0.00 0.94 0.00 85 1011.2
20210518045401 9 207 1.6 6.4 0.00 0.94 0.00 85 1011.2
20210518045305 9 207 4.8 6.4 0.00 0.94 0.00 85 1011.2
20210518045201 9 205 4.8 6.4 0.00 0.94 0.00 85 1011.2
20210518045000 9 205 3.2 8.0 0.00 0.94 0.00 85 1011.1
20210518044900 9 202 1.6 8.0 0.00 0.94 0.00 85 1011.0
20210518044802 9 202 1.6 8.0 0.00 0.94 0.00 85 1011.0
20210518044701 9 200 0.0 8.0 0.00 0.94 0.00 85 1010.9
20210518044600 9 198 1.6 8.0 0.00 0.94 0.00 85 1010.9
20210518044502 8 197 1.6 8.0 0.00 0.94 0.00 85 1010.9
20210518044418 8 196 3.2 8.0 0.00 0.94 0.00 84 1010.9
20210518044300 8 196 4.8 8.0 0.00 0.94 0.00 84 1011.0
20210518044203 8 195 1.6 8.0 0.00 0.94 0.00 84 1011.0
20210518044101 8 192 3.2 8.0 0.00 0.94 0.00 84 1011.1
20210518044002 8 192 6.4 8.0 0.00 0.94 0.00 84 1011.0
20210518043902 8 191 0.0 4.8 0.00 0.94 0.00 84 1011.0
20210518043800 8 198 0.0 4.8 0.00 0.94 0.00 84 1011.0
20210518043700 8 192 1.6 4.8 0.00 0.94 0.00 84 1011.0
20210518043602 8 197 0.0 4.8 0.00 0.94 0.00 84 1011.0
20210518043500 8 199 0.0 4.8 0.00 0.94 0.00 84 1011.0
20210518043401 8 200 0.0 4.8 0.00 0.94 0.00 84 1010.9
20210518043302 8 200 0.0 4.8 0.00 0.94 0.00 83 1010.9
20210518043201 8 200 1.6 4.8 0.00 0.94 0.00 83 1010.9
20210518043100 8 219 1.6 4.8 0.00 0.94 0.00 83 1010.9
20210518043007 8 221 0.0 4.8 0.00 0.94 0.00 83 1010.9
20210518042901 8 221 0.0 6.4 0.00 0.94 0.00 83 1011.0
20210518042759 8 221 0.0 6.4 0.00 0.94 0.00 83 1011.0
20210518042702 8 219 0.0 6.4 0.00 0.94 0.00 83 1011.0
20210518042600 8 220 1.6 6.4 0.00 0.94 0.00 83 1011.0
20210518042501 8 224 3.2 8.0 0.00 0.94 0.00 83 1011.0
20210518042403 8 224 0.0 8.0 0.00 0.94 0.00 83 1011.0
20210518042301 8 215 3.2 8.0 0.00 0.94 0.00 87 1011.1
20210518042200 8 215 0.0 8.0 0.00 0.94 0.00 83 1011.1
20210518042102 8 215 1.6 8.0 0.00 0.94 0.00 87 1011.1
20210518042001 8 215 3.2 9.7 0.00 0.94 0.00 83 1011.1
20210518041900 8 215 4.8 9.7 0.00 0.94 0.00 83 1011.0
20210518041807 8 215 0.0 9.7 0.00 0.94 0.00 83 1011.0
20210518041700 8 215 0.0 9.7 0.00 0.94 0.00 83 1010.9
20210518041601 8 217 3.2 9.7 0.00 0.94 0.00 83 1011.0
20210518041503 8 210 4.8 9.7 0.00 0.94 0.00 83 1011.0
20210518041400 8 209 0.0 9.7 0.00 0.94 0.00 83 1011.0
20210518041300 8 209 1.6 9.7 0.00 0.94 0.00 82 1011.0
20210518041203 8 210 0.0 9.7 0.00 0.94 0.00 82 1011.0
20210518041100 8 213 3.2 9.7 0.00 0.94 0.00 82 1011.0
20210518041000 8 215 9.7 9.7 0.00 0.94 0.00 82 1011.0
20210518040902 8 214 6.4 9.7 0.00 0.94 0.00 82 1011.0
20210518040820 8 208 4.8 9.7 0.00 0.94 0.00 82 1011.0
20210518040700 8 207 4.8 9.7 0.00 0.94 0.00 82 1011.0
20210518040603 8 211 0.0 9.7 0.00 0.94 0.00 82 1010.9
20210518040501 8 213 3.2 9.7 0.00 0.94 0.00 82 1011.0
20210518040400 8 178 4.8 4.8 0.00 0.94 0.00 82 1011.0
20210518040302 8 173 1.6 3.2 0.00 0.94 0.00 82 1011.0
20210518040200 8 173 1.6 3.2 0.00 0.94 0.00 82 1011.0
20210518040110 8 174 1.6 4.8 0.00 0.94 0.00 82 1010.9
20210518040007 8 175 3.2 4.8 0.00 0.94 0.00 82 1010.9
20210518035900 8 174 1.6 4.8 0.00 0.94 0.00 82 1010.9
20210518035801 8 175 0.0 4.8 0.00 0.94 0.00 82 1010.9
20210518035702 8 175 0.0 4.8 0.00 0.94 0.00 82 1010.9
20210518035600 8 175 0.0 4.8 0.00 0.94 0.00 81 1010.9
20210518035500 8 175 0.0 4.8 0.00 0.94 0.00 81 1011.0
20210518035402 8 176 0.0 4.8 0.00 0.94 0.00 81 1010.9
20210518035300 8 177 1.6 4.8 0.00 0.94 0.00 81 1011.0
20210518035200 8 176 0.0 4.8 0.00 0.94 0.00 81 1010.9
20210518035102 8 176 4.8 4.8 0.00 0.94 0.00 81 1010.9
20210518035001 8 163 1.6 3.2 0.00 0.94 0.00 81 1010.9
20210518034901 8 162 0.0 3.2 0.00 0.94 0.00 81 1010.9
20210518034821 8 162 1.6 3.2 0.00 0.94 0.00 80 1010.9
20210518034700 8 162 0.0 6.4 0.00 0.94 0.00 80 1010.8
20210518034600 8 161 1.6 6.4 0.00 0.94 0.00 80 1010.8
20210518034502 8 157 0.0 6.4 0.00 0.94 0.00 80 1010.8
20210518034401 8 157 0.0 6.4 0.00 0.94 0.00 79 1010.8
20210518034259 8 157 0.0 6.4 0.00 0.94 0.00 79 1010.8
20210518034203 8 160 0.0 6.4 0.00 0.94 0.00 79 1010.8
20210518034101 9 160 0.0 6.4 0.00 0.94 0.00 79 1010.8
20210518034001 9 155 0.0 6.4 0.00 0.94 0.00 79 1010.8
20210518033902 9 150 1.6 6.4 0.00 0.94 0.00 79 1010.8
20210518033800 9 146 0.0 6.4 0.00 0.94 0.00 78 1010.9
20210518033700 9 113 6.4 6.4 0.00 0.94 0.00 79 1010.8
20210518033602 9 63 0.0 3.2 0.00 0.94 0.00 78 1010.9
20210518033500 9 63 0.0 4.8 0.00 0.94 0.00 78 1010.9
20210518033401 9 63 1.6 6.4 0.00 0.94 0.00 78 1010.9
20210518033307 10 61 1.6 6.4 0.00 0.94 0.00 78 1010.9
20210518033200 10 61 1.6 6.4 0.00 0.94 0.00 78 1010.9
20210518033100 10 61 3.2 6.4 0.00 0.94 0.00 78 1010.9
20210518033006 10 62 1.6 8.0 0.00 0.94 0.00 78 1010.9
20210518032901 10 67 0.0 8.0 0.00 0.94 0.00 78 1010.9
20210518032800 10 69 0.0 8.0 0.00 0.94 0.00 78 1010.9
20210518032702 10 69 1.6 8.0 0.00 0.94 0.00 78 1010.8
20210518032559 10 71 3.2 8.0 0.00 0.94 0.00 78 1010.9
20210518032500 10 73 4.8 8.0 0.00 0.94 0.00 77 1010.9
20210518032402 10 74 4.8 8.0 0.00 0.94 0.00 77 1010.9
20210518032300 10 74 4.8 8.0 0.00 0.94 0.00 77 1010.9
20210518032200 10 74 4.8 8.0 0.00 0.94 0.00 77 1010.9
20210518032102 10 74 6.4 8.0 0.00 0.94 0.00 77 1010.9
20210518032001 10 74 8.0 8.0 0.00 0.94 0.00 77 1010.9
20210518031900 10 74 6.4 8.0 0.00 0.94 0.00 77 1010.9
20210518031802 10 78 6.4 9.7 0.00 0.94 0.00 77 1010.9
20210518031701 10 79 8.0 9.7 0.00 0.94 0.00 76 1010.8
20210518031600 10 89 8.0 9.7 0.00 0.94 0.00 76 1010.8
20210518031503 10 90 4.8 8.0 0.00 0.94 0.00 76 1010.7
20210518031400 10 88 4.8 8.0 0.00 0.94 0.00 76 1010.7
20210518031259 10 88 4.8 8.0 0.00 0.94 0.00 76 1010.7
20210518031203 10 111 3.2 8.0 0.00 0.94 0.00 75 1010.7
20210518031100 10 111 0.0 8.0 0.00 0.94 0.00 75 1010.7
20210518031002 10 110 0.0 8.0 0.00 0.94 0.00 75 1010.7
20210518030902 10 90 3.2 8.0 0.00 0.94 0.00 75 1010.6
20210518030800 10 26 3.2 9.7 0.00 0.94 0.00 75 1010.7
20210518030701 10 24 1.6 9.7 0.00 0.94 0.00 74 1010.6
20210518030602 10 24 1.6 9.7 0.00 0.94 0.00 74 1010.6
20210518030501 10 44 4.8 9.7 0.00 0.94 0.00 74 1010.6
20210518030400 10 45 6.4 9.7 0.00 0.94 0.00 74 1010.6
20210518030302 10 82 8.0 9.7 0.00 0.94 0.00 74 1010.6
20210518030200 10 59 4.8 9.7 0.00 0.94 0.00 74 1010.6
20210518030112 11 17 3.2 11.3 0.00 0.94 0.00 73 1010.6
20210518030007 11 17 4.8 11.3 0.00 0.94 0.00 73 1010.6
20210518025900 11 360 4.8 12.9 0.00 0.94 0.00 73 1010.5
20210518025759 11 5 4.8 12.9 0.00 0.94 0.00 72 1010.5
20210518025702 11 14 6.4 12.9 0.00 0.94 0.00 72 1010.5
20210518025601 11 5 4.8 12.9 0.00 0.94 0.00 72 1010.4
20210518025501 11 14 6.4 12.9 0.00 0.94 0.00 70 1010.4
20210518025402 11 19 6.4 12.9 0.00 0.94 0.00 70 1010.3
20210518025300 11 16 6.4 12.9 0.00 0.94 0.00 69 1010.3
20210518025200 11 51 6.4 12.9 0.00 0.94 0.00 68 1010.3
20210518025102 11 49 6.4 12.9 0.00 0.94 0.00 67 1010.3
20210518025004 12 53 8.0 12.9 0.00 0.94 0.00 65 1010.3
20210518024900 12 44 8.0 14.5 0.00 0.94 0.00 64 1010.3
20210518024802 12 57 8.0 11.3 0.00 0.94 0.00 63 1010.3
20210518024700 13 60 3.2 9.7 0.00 0.94 0.00 63 1010.3
20210518024600 13 40 3.2 11.3 0.00 0.94 0.00 62 1010.3
20210518024503 13 226 3.2 11.3 0.00 0.94 0.00 62 1010.2
20210518024359 13 226 0.0 11.3 0.00 0.94 0.00 62 1010.2
20210518024301 13 226 1.6 11.3 0.00 0.94 0.00 62 1010.2
20210518024202 13 224 8.0 14.5 0.00 0.94 0.00 62 1010.2
20210518024100 13 225 6.4 16.1 0.00 0.94 0.00 62 1010.1
20210518024031 13 222 6.4 16.1 0.00 0.94 0.00 62 1010.1
20210518023902 13 228 8.0 16.1 0.00 0.94 0.00 62 1010.1
20210518023801 13 225 8.0 16.1 0.00 0.94 0.00 63 1010.1
20210518023700 13 224 8.0 16.1 0.00 0.94 0.00 63 1010.1
20210518023605 13 220 6.4 16.1 0.00 0.94 0.00 63 1010.1
20210518023500 13 219 9.7 16.1 0.00 0.94 0.00 63 1010.1
20210518023400 13 230 9.7 16.1 0.00 0.94 0.00 63 1010.1
20210518023302 13 209 9.7 16.1 0.00 0.94 0.00 63 1010.1
20210518023200 13 217 12.9 16.1 0.00 0.94 0.00 63 1010.1
20210518023100 13 210 9.7 17.7 0.00 0.94 0.00 63 1010.1
20210518023006 13 217 11.3 17.7 0.00 0.94 0.00 63 1010.1
20210518022900 13 234 11.3 17.7 0.00 0.94 0.00 64 1010.1
20210518022800 13 227 12.9 17.7 0.00 0.94 0.00 64 1010.1
20210518022702 13 222 12.9 17.7 0.00 0.94 0.00 64 1010.1
20210518022600 13 215 14.5 16.1 0.00 0.94 0.00 64 1010.1
20210518022500 13 228 14.5 16.1 0.00 0.94 0.00 64 1010.1
20210518022402 13 228 9.7 16.1 0.00 0.94 0.00 64 1010.0
20210518022300 13 216 11.3 16.1 0.00 0.94 0.00 64 1010.1
20210518022200 13 221 12.9 16.1 0.00 0.94 0.00 64 1010.1
20210518022102 13 216 12.9 16.1 0.00 0.94 0.00 64 1010.0
20210518022029 13 221 14.5 16.1 0.00 0.94 0.00 64 1010.0
20210518021900 13 217 12.9 14.5 0.00 0.94 0.00 64 1010.1
20210518021802 13 224 12.9 16.1 0.00 0.94 0.00 64 1010.1
20210518021700 13 207 11.3 16.1 0.00 0.94 0.00 64 1010.1
20210518021600 13 217 14.5 16.1 0.00 0.94 0.00 64 1010.1
20210518021502 13 217 11.3 16.1 0.00 0.94 0.00 64 1010.1
20210518021400 13 224 11.3 16.1 0.00 0.94 0.00 65 1010.1
20210518021259 13 222 11.3 16.1 0.00 0.94 0.00 65 1010.0
20210518021202 13 221 9.7 16.1 0.00 0.94 0.00 65 1010.0
20210518021100 13 211 9.7 16.1 0.00 0.94 0.00 65 1010.0
20210518021002 13 219 14.5 16.1 0.00 0.94 0.00 66 1010.0
20210518020911 13 223 12.9 16.1 0.00 0.94 0.00 66 1010.0
20210518020759 13 214 12.9 16.1 0.00 0.94 0.00 67 1010.0
20210518020659 13 221 16.1 16.1 0.00 0.94 0.00 67 1010.0
20210518020603 13 217 12.9 16.1 0.00 0.94 0.00 67 1010.0
20210518020500 13 218 16.1 16.1 0.00 0.94 0.00 68 1010.0
20210518020359 13 217 9.7 14.5 0.00 0.94 0.00 68 1010.0
20210518020302 13 220 8.0 14.5 0.00 0.94 0.00 69 1010.0
20210518020201 13 219 9.7 14.5 0.00 0.94 0.00 70 1010.0
20210518020110 12 232 14.5 14.5 0.00 0.94 0.00 70 1010.0
20210518020005 12 216 9.7 12.9 0.00 0.94 0.00 70 1010.0
20210518015900 12 223 8.0 12.9 0.00 0.94 0.00 71 1010.0
20210518015800 12 229 9.7 12.9 0.00 0.94 0.00 71 1009.9
20210518015702 12 221 11.3 12.9 0.00 0.94 0.00 72 1009.9
20210518015600 12 232 9.7 12.9 0.00 0.94 0.00 73 1010.0
20210518015526 12 221 11.3 12.9 0.00 0.94 0.00 73 1010.0
20210518015402 11 223 6.4 12.9 0.00 0.94 0.00 73 1010.0
20210518015300 11 222 6.4 12.9 0.00 0.94 0.00 73 1010.0
20210518015200 11 223 8.0 12.9 0.00 0.94 0.00 73 1010.0
20210518015102 11 223 6.4 12.9 0.00 0.94 0.00 73 1009.9
20210518015001 11 224 8.0 12.9 0.00 0.94 0.00 73 1009.9
20210518014900 11 219 6.4 12.9 0.00 0.94 0.00 73 1010.0
20210518014802 11 227 6.4 12.9 0.00 0.94 0.00 73 1009.9
20210518014700 11 226 9.7 12.9 0.00 0.94 0.00 73 1009.9
20210518014600 11 217 8.0 12.9 0.00 0.94 0.00 73 1009.9
20210518014502 11 224 11.3 12.9 0.00 0.94 0.00 73 1010.0
20210518014400 11 227 9.7 12.9 0.00 0.94 0.00 72 1009.9
20210518014300 11 218 9.7 12.9 0.00 0.94 0.00 72 1009.9
20210518014222 11 218 9.7 12.9 0.00 0.94 0.00 72 1009.9
20210518014100 11 225 8.0 12.9 0.00 0.94 0.00 72 1009.8
20210518014000 11 219 9.7 12.9 0.00 0.94 0.00 72 1009.8
20210518013902 11 224 11.3 12.9 0.00 0.94 0.00 72 1009.9
20210518013801 12 208 8.0 12.9 0.00 0.94 0.00 71 1009.9
20210518013719 12 219 9.7 12.9 0.00 0.94 0.00 71 1009.9
20210518013602 12 225 6.4 11.3 0.00 0.94 0.00 71 1009.8
20210518013517 12 227 6.4 12.9 0.00 0.94 0.00 71 1009.8
20210518013400 12 211 6.4 12.9 0.00 0.94 0.00 71 1009.8
20210518013302 12 219 6.4 14.5 0.00 0.94 0.00 71 1009.7
20210518013200 12 221 9.7 14.5 0.00 0.94 0.00 71 1009.8
20210518013120 12 219 4.8 14.5 0.00 0.94 0.00 71 1009.8
20210518013025 12 234 6.4 14.5 0.00 0.94 0.00 71 1009.7
20210518012900 12 228 6.4 14.5 0.00 0.94 0.00 71 1009.7
20210518012803 12 226 6.4 14.5 0.00 0.94 0.00 71 1009.7
20210518012702 12 225 9.7 14.5 0.00 0.94 0.00 71 1009.6
20210518012600 12 227 8.0 14.5 0.00 0.94 0.00 71 1009.7
20210518012500 12 230 6.4 17.7 0.00 0.94 0.00 71 1009.6
20210518012402 12 227 8.0 17.7 0.00 0.94 0.00 71 1009.6
20210518012300 12 222 8.0 17.7 0.00 0.94 0.00 72 1009.6
20210518012200 12 222 12.9 17.7 0.00 0.94 0.00 72 1009.6
20210518012103 12 215 6.4 17.7 0.00 0.94 0.00 72 1009.5
20210518012000 12 219 11.3 17.7 0.00 0.94 0.00 72 1009.5
20210518011919 12 210 9.7 17.7 0.00 0.94 0.00 73 1009.5
20210518011802 12 225 8.0 17.7 0.00 0.94 0.00 73 1009.5
20210518011700 12 226 9.7 17.7 0.00 0.94 0.00 73 1009.5
20210518011600 12 212 11.3 17.7 0.00 0.94 0.00 73 1009.5
20210518011502 12 221 9.7 16.1 0.00 0.94 0.00 74 1009.5
20210518011359 12 221 9.7 16.1 0.00 0.94 0.00 74 1009.5
20210518011300 12 232 4.8 16.1 0.00 0.94 0.00 74 1009.4
20210518011202 12 219 14.5 16.1 0.00 0.94 0.00 74 1009.5
20210518011100 12 225 12.9 16.1 0.00 0.94 0.00 74 1009.4
20210518011000 12 222 8.0 16.1 0.00 0.94 0.00 75 1009.4
20210518010902 11 210 9.7 16.1 0.00 0.94 0.00 75 1009.4
20210518010800 11 219 11.3 16.1 0.00 0.94 0.00 75 1009.4
20210518010659 11 227 11.3 14.5 0.00 0.94 0.00 75 1009.4
20210518010602 11 215 9.7 14.5 0.00 0.94 0.00 75 1009.4
20210518010501 11 224 8.0 14.5 0.00 0.94 0.00 75 1009.4
20210518010400 11 226 8.0 14.5 0.00 0.94 0.00 75 1009.4
20210518010302 11 223 6.4 14.5 0.00 0.94 0.00 75 1009.3
20210518010200 11 221 9.7 14.5 0.00 0.94 0.00 75 1009.3
20210518010110 11 223 9.7 14.5 0.00 0.94 0.00 75 1009.4
20210518010005 11 219 8.0 14.5 0.00 0.94 0.00 75 1009.4
20210518005900 11 224 9.7 14.5 0.00 0.94 0.00 75 1009.4
20210518005800 11 216 8.0 14.5 0.00 0.94 0.00 75 1009.3
20210518005702 11 206 9.7 12.9 0.00 0.94 0.00 75 1009.4
20210518005600 11 217 6.4 12.9 0.00 0.94 0.00 75 1009.4
20210518005500 11 219 8.0 12.9 0.00 0.94 0.00 75 1009.3
20210518005402 11 224 9.7 12.9 0.00 0.94 0.00 75 1009.3
20210518005300 11 225 11.3 12.9 0.00 0.94 0.00 74 1009.3
20210518005200 11 210 6.4 12.9 0.00 0.94 0.00 74 1009.3
20210518005103 11 217 11.3 12.9 0.00 0.94 0.00 74 1009.2
20210518005000 11 227 8.0 12.9 0.00 0.94 0.00 74 1009.2
20210518004900 11 214 8.0 12.9 0.00 0.94 0.00 74 1009.2
20210518004802 11 211 8.0 12.9 0.00 0.94 0.00 73 1009.2
20210518004700 11 206 6.4 12.9 0.00 0.94 0.00 73 1009.2
20210518004600 11 215 4.8 12.9 0.00 0.94 0.00 73 1009.1
20210518004502 11 209 6.4 12.9 0.00 0.94 0.00 73 1009.2
20210518004420 11 194 6.4 12.9 0.00 0.94 0.00 73 1009.2
20210518004300 11 211 4.8 12.9 0.00 0.94 0.00 73 1009.1
20210518004202 11 223 9.7 12.9 0.00 0.94 0.00 73 1009.1
20210518004101 11 211 6.4 11.3 0.00 0.94 0.00 73 1009.0
20210518004000 11 216 6.4 11.3 0.00 0.94 0.00 73 1009.0
20210518003902 11 204 4.8 11.3 0.00 0.94 0.00 73 1008.9
20210518003759 11 219 6.4 11.3 0.00 0.94 0.00 73 1008.9
20210518003700 11 219 8.0 11.3 0.00 0.94 0.00 72 1008.9
20210518003602 11 204 4.8 11.3 0.00 0.94 0.00 72 1008.9
20210518003500 11 211 9.7 11.3 0.00 0.94 0.00 72 1008.9
20210518003420 11 211 4.8 11.3 0.00 0.94 0.00 72 1008.9
20210518003302 11 217 6.4 11.3 0.00 0.94 0.00 72 1008.9
20210518003159 11 217 4.8 11.3 0.00 0.94 0.00 72 1009.0
20210518003100 12 217 6.4 11.3 0.00 0.94 0.00 72 1009.0
20210518003002 12 209 3.2 11.3 0.00 0.94 0.00 72 1009.0
20210518002900 12 209 3.2 11.3 0.00 0.94 0.00 71 1009.1
20210518002800 12 208 6.4 11.3 0.00 0.94 0.00 71 1009.0
20210518002701 12 212 4.8 9.7 0.00 0.94 0.00 71 1009.1
20210518002600 12 217 4.8 9.7 0.00 0.94 0.00 71 1009.1
20210518002501 12 232 4.8 9.7 0.00 0.94 0.00 71 1009.1
20210518002402 12 210 4.8 9.7 0.00 0.94 0.00 71 1009.1
20210518002300 12 209 4.8 14.5 0.00 0.94 0.00 71 1009.1
20210518002200 12 200 4.8 14.5 0.00 0.94 0.00 71 1009.0
20210518002102 12 200 4.8 14.5 0.00 0.94 0.00 71 1009.1
20210518002000 12 207 4.8 14.5 0.00 0.94 0.00 71 1009.0
20210518001900 12 207 3.2 14.5 0.00 0.94 0.00 70 1009.1
20210518001802 12 205 4.8 14.5 0.00 0.94 0.00 70 1009.0
20210518001700 12 205 4.8 14.5 0.00 0.94 0.00 70 1009.0
20210518001600 12 197 1.6 14.5 0.00 0.94 0.00 70 1009.1
20210518001507 12 210 6.4 14.5 0.00 0.94 0.00 70 1009.1
20210518001400 12 216 6.4 14.5 0.00 0.94 0.00 70 1009.1
20210518001300 12 196 8.0 16.1 0.00 0.94 0.00 70 1009.1
20210518001202 12 213 6.4 16.1 0.00 0.94 0.00 70 1009.1
20210518001100 12 217 6.4 17.7 0.00 0.94 0.00 70 1009.1
20210518001000 12 219 6.4 17.7 0.00 0.94 0.00 70 1009.1
20210518000902 12 223 6.4 17.7 0.00 0.94 0.00 70 1009.1
20210518000800 12 207 3.2 17.7 0.00 0.94 0.00 70 1009.2
20210518000659 12 225 11.3 17.7 0.00 0.94 0.00 70 1009.1
20210518000602 12 234 9.7 17.7 0.00 0.94 0.00 70 1009.1
20210518000500 12 222 8.0 17.7 0.00 0.94 0.00 70 1009.1
20210518000400 12 219 8.0 17.7 0.00 0.94 0.00 70 1009.2
20210518000302 12 209 11.3 17.7 0.00 0.94 0.00 70 1009.2
20210518000200 12 224 11.3 17.7 0.00 0.94 0.00 70 1009.2
20210518000109 12 215 9.7 16.1 0.00 0.94 0.00 70 1009.2
20210518000008 12 216 12.9 16.1 0.00 0.94 0.00 70 1009.2
20210517235900 12 217 9.7 16.1 0.00 0.94 0.00 69 1009.3
20210517235800 12 211 11.3 16.1 0.00 0.94 0.00 69 1009.3
20210517235701 12 213 11.3 16.1 0.00 0.94 0.00 69 1009.3
20210517235600 12 222 12.9 16.1 0.00 0.94 0.00 69 1009.3
20210517235500 12 196 4.8 14.5 0.00 0.94 0.00 69 1009.3
20210517235402 12 196 4.8 14.5 0.00 0.94 0.00 69 1009.3
20210517235259 12 213 4.8 14.5 0.00 0.94 0.00 69 1009.3
20210517235200 13 203 6.4 14.5 0.00 0.94 0.00 69 1009.3
20210517235102 13 185 1.6 14.5 0.00 0.94 0.00 69 1009.3
20210517235000 13 216 6.4 14.5 0.00 0.94 0.00 69 1009.3
20210517234859 13 224 12.9 14.5 0.00 0.94 0.00 69 1009.3
20210517234802 13 211 9.7 14.5 0.00 0.94 0.00 69 1009.3
20210517234700 13 215 8.0 14.5 0.00 0.94 0.00 69 1009.3
20210517234600 13 221 8.0 11.3 0.00 0.94 0.00 69 1009.2
20210517234503 13 206 6.4 11.3 0.00 0.94 0.00 69 1009.3
20210517234400 13 213 6.4 11.3 0.00 0.94 0.00 69 1009.2
20210517234300 13 213 6.4 11.3 0.00 0.94 0.00 69 1009.2
20210517234201 13 215 8.0 12.9 0.00 0.94 0.00 69 1009.3
20210517234100 13 194 6.4 12.9 0.00 0.94 0.00 69 1009.3
20210517234003 13 231 11.3 12.9 0.00 0.94 0.00 69 1009.3
20210517233902 13 199 4.8 12.9 0.00 0.94 0.00 69 1009.3
20210517233800 13 199 3.2 12.9 0.00 0.94 0.00 68 1009.2
20210517233659 13 197 6.4 12.9 0.00 0.94 0.00 68 1009.3
20210517233602 13 213 6.4 12.9 0.00 0.94 0.00 68 1009.3
20210517233500 13 213 6.4 12.9 0.00 0.94 0.00 68 1009.2
20210517233400 13 209 6.4 12.9 0.00 0.94 0.00 68 1009.3
20210517233303 13 192 8.0 12.9 0.00 0.94 0.00 68 1009.3
20210517233200 13 217 12.9 12.9 0.00 0.94 0.00 68 1009.3
20210517233100 13 223 6.4 11.3 0.00 0.94 0.00 68 1009.3
20210517233004 13 205 9.7 11.3 0.00 0.94 0.00 68 1009.3
20210517232900 13 144 3.2 11.3 0.00 0.94 0.00 68 1009.3
20210517232800 13 202 8.0 11.3 0.00 0.94 0.00 67 1009.3
20210517232702 13 201 4.8 17.7 0.00 0.94 0.00 67 1009.3
20210517232600 13 209 6.4 17.7 0.00 0.94 0.00 67 1009.3
20210517232501 13 194 6.4 17.7 0.00 0.94 0.00 67 1009.3
20210517232402 13 196 3.2 17.7 0.00 0.94 0.00 67 1009.3
20210517232300 13 205 9.7 17.7 0.00 0.94 0.00 67 1009.3
20210517232200 13 201 11.3 17.7 0.00 0.94 0.00 67 1009.3
20210517232103 13 198 4.8 17.7 0.00 0.94 0.00 66 1009.3
20210517232004 13 198 3.2 17.7 0.00 0.94 0.00 66 1009.3
20210517231900 13 224 4.8 17.7 0.00 0.94 0.00 66 1009.2
20210517231802 14 193 6.4 17.7 0.00 0.94 0.00 66 1009.3
20210517231700 14 198 11.3 14.5 0.00 0.94 0.00 66 1009.3
20210517231600 14 208 6.4 14.5 0.00 0.94 0.00 66 1009.4
20210517231502 14 200 9.7 14.5 0.00 0.94 0.00 66 1009.4
20210517231400 14 188 6.4 11.3 0.00 0.94 0.00 66 1009.3
20210517231300 14 200 6.4 11.3 0.00 0.94 0.00 66 1009.3
20210517231202 14 201 4.8 11.3 0.00 0.94 0.00 65 1009.4
20210517231100 14 215 4.8 14.5 0.00 0.94 0.00 65 1009.3
20210517231029 14 211 6.4 14.5 0.00 0.94 0.00 65 1009.3
20210517230913 14 202 4.8 14.5 0.00 0.94 0.00 65 1009.4
20210517230800 14 215 8.0 14.5 0.00 0.94 0.00 65 1009.4
20210517230700 14 217 9.7 14.5 0.00 0.94 0.00 65 1009.4
20210517230602 15 209 8.0 14.5 0.00 0.94 0.00 65 1009.4
20210517230522 15 218 11.3 14.5 0.00 0.94 0.00 65 1009.4
20210517230400 15 210 6.4 14.5 0.00 0.94 0.00 65 1009.4
20210517230302 15 230 6.4 14.5 0.00 0.94 0.00 65 1009.5
20210517230200 15 199 11.3 14.5 0.00 0.94 0.00 65 1009.4
20210517230114 15 217 8.0 11.3 0.00 0.94 0.00 65 1009.5
20210517230008 15 220 8.0 11.3 0.00 0.94 0.00 65 1009.5
20210517225900 15 214 6.4 11.3 0.00 0.94 0.00 65 1009.4
20210517225800 15 204 4.8 11.3 0.00 0.94 0.00 65 1009.5
20210517225702 15 201 1.6 11.3 0.00 0.94 0.00 65 1009.5
20210517225600 15 222 3.2 14.5 0.00 0.94 0.00 65 1009.5
20210517225500 15 199 3.2 14.5 0.00 0.94 0.00 65 1009.5
20210517225402 15 200 3.2 16.1 0.00 0.94 0.00 65 1009.5
20210517225305 15 219 9.7 17.7 0.00 0.94 0.00 65 1009.5
20210517225159 15 190 8.0 17.7 0.00 0.94 0.00 65 1009.5
20210517225102 15 207 6.4 17.7 0.00 0.94 0.00 65 1009.5
20210517225002 15 213 9.7 17.7 0.00 0.94 0.00 65 1009.5
20210517224900 15 202 6.4 17.7 0.00 0.94 0.00 65 1009.5
20210517224802 15 213 8.0 17.7 0.00 0.94 0.00 65 1009.4
20210517224700 15 198 6.4 17.7 0.00 0.94 0.00 65 1009.5
20210517224601 15 204 9.7 17.7 0.00 0.94 0.00 65 1009.5
20210517224511 15 206 9.7 17.7 0.00 0.94 0.00 65 1009.5
20210517224400 15 181 9.7 17.7 0.00 0.94 0.00 65 1009.4
20210517224300 15 203 8.0 17.7 0.00 0.94 0.00 65 1009.4
20210517224221 15 182 8.0 17.7 0.00 0.94 0.00 65 1009.4
20210517224100 15 215 12.9 17.7 0.00 0.94 0.00 66 1009.4
20210517224011 15 210 8.0 17.7 0.00 0.94 0.00 66 1009.4
20210517223902 15 217 12.9 16.1 0.00 0.94 0.00 66 1009.4
20210517223822 15 217 16.1 16.1 0.00 0.94 0.00 66 1009.4
20210517223701 15 207 6.4 16.1 0.00 0.94 0.00 66 1009.4
20210517223602 15 210 8.0 16.1 0.00 0.94 0.00 66 1009.4
20210517223520 15 211 11.3 16.1 0.00 0.94 0.00 66 1009.4
20210517223401 15 214 8.0 16.1 0.00 0.94 0.00 66 1009.4
20210517223302 15 236 11.3 24.1 0.00 0.94 0.00 66 1009.4
20210517223159 15 214 4.8 24.1 0.00 0.94 0.00 66 1009.4
20210517223101 15 201 8.0 24.1 0.00 0.94 0.00 66 1009.4
20210517223005 15 208 9.7 24.1 0.00 0.94 0.00 65 1009.4
20210517222900 15 205 11.3 24.1 0.00 0.94 0.00 66 1009.4
20210517222759 15 211 16.1 24.1 0.00 0.94 0.00 66 1009.4
20210517222702 15 203 14.5 24.1 0.00 0.94 0.00 66 1009.4
20210517222600 15 225 16.1 24.1 0.00 0.94 0.00 66 1009.4
20210517222501 15 207 12.9 24.1 0.00 0.94 0.00 66 1009.4
20210517222402 15 214 11.3 24.1 0.00 0.94 0.00 66 1009.4
20210517222259 15 221 24.1 24.1 0.00 0.94 0.00 66 1009.4
20210517222200 15 217 12.9 16.1 0.00 0.94 0.00 66 1009.4
20210517222104 15 211 12.9 16.1 0.00 0.94 0.00 66 1009.4
20210517222002 15 223 12.9 16.1 0.00 0.94 0.00 66 1009.5
20210517221900 15 216 12.9 16.1 0.00 0.94 0.00 66 1009.4
20210517221802 15 207 11.3 16.1 0.00 0.94 0.00 66 1009.4
20210517221700 15 197 16.1 17.7 0.00 0.94 0.00 66 1009.4
20210517221600 15 206 11.3 17.7 0.00 0.94 0.00 66 1009.4
20210517221502 15 198 14.5 17.7 0.00 0.94 0.00 66 1009.4
20210517221400 15 211 11.3 16.1 0.00 0.94 0.00 66 1009.3
20210517221300 15 201 9.7 16.1 0.00 0.94 0.00 66 1009.3
20210517221202 15 217 12.9 16.1 0.00 0.94 0.00 67 1009.3
20210517221100 15 203 11.3 14.5 0.00 0.94 0.00 67 1009.3
20210517221001 15 205 11.3 14.5 0.00 0.94 0.00 67 1009.3
20210517220902 15 204 8.0 12.9 0.00 0.94 0.00 67 1009.3
20210517220800 15 207 9.7 12.9 0.00 0.94 0.00 67 1009.3
20210517220702 15 205 9.7 12.9 0.00 0.94 0.00 67 1009.3
20210517220602 15 204 8.0 17.7 0.00 0.94 0.00 67 1009.3
20210517220500 15 222 11.3 17.7 0.00 0.94 0.00 67 1009.3
20210517220402 15 200 8.0 17.7 0.00 0.94 0.00 67 1009.3
20210517220301 15 196 12.9 17.7 0.00 0.94 0.00 67 1009.3
20210517220201 15 202 11.3 17.7 0.00 0.94 0.00 67 1009.3
20210517220147 15 200 11.3 17.7 0.00 0.94 0.00 67 1009.3
20210517220032 15 196 11.3 17.7 0.00 0.94 0.00 67 1009.3
20210517215902 15 198 11.3 17.7 0.00 0.94 0.94 67 1009.2
20210517215802 15 211 11.3 17.7 0.00 0.94 0.94 67 1009.3
20210517215703 15 201 11.3 19.3 0.00 0.94 0.94 67 1009.3
20210517215600 15 211 11.3 19.3 0.00 0.94 0.94 67 1009.2
20210517215502 15 192 8.0 19.3 0.00 0.94 0.94 67 1009.3
20210517215402 15 207 11.3 19.3 0.00 0.94 0.94 67 1009.3
20210517215305 15 207 12.9 22.5 0.00 0.94 0.94 67 1009.3
20210517215203 15 217 11.3 22.5 0.00 0.94 0.94 67 1009.3
20210517215103 15 225 16.1 22.5 0.00 0.94 0.94 67 1009.3
20210517215002 15 206 17.7 22.5 0.00 0.94 0.94 67 1009.3
20210517214902 15 206 11.3 22.5 0.00 0.94 0.94 67 1009.3
20210517214804 15 212 14.5 22.5 0.00 0.94 0.94 67 1009.3
20210517214702 15 209 11.3 22.5 0.00 0.94 0.94 67 1009.3
20210517214603 15 205 11.3 22.5 0.00 0.94 0.94 67 1009.3
20210517214504 15 215 14.5 22.5 0.00 0.94 0.94 67 1009.3
20210517214402 15 212 12.9 22.5 0.00 0.94 0.94 67 1009.2
20210517214302 15 205 12.9 22.5 0.00 0.94 0.94 67 1009.3
20210517214203 15 207 14.5 22.5 0.00 0.94 0.94 67 1009.2
20210517214100 15 205 17.7 27.4 0.00 0.94 0.94 67 1009.2
20210517214003 15 211 14.5 27.4 0.00 0.94 0.94 67 1009.2
20210517213903 15 200 17.7 27.4 0.00 0.94 0.94 67 1009.2
20210517213802 15 224 20.9 27.4 0.00 0.94 0.94 67 1009.2
20210517213702 15 216 17.7 27.4 0.00 0.94 0.94 67 1009.2
20210517213604 15 203 16.1 27.4 0.00 0.94 0.94 67 1009.2
20210517213500 15 211 16.1 30.6 0.00 0.94 0.94 67 1009.1
20210517213402 15 215 16.1 30.6 0.00 0.94 0.94 67 1009.2
20210517213305 15 198 11.3 30.6 0.00 0.94 0.94 67 1009.2
20210517213208 15 210 14.5 30.6 0.00 0.94 0.94 67 1009.2
20210517213102 15 199 24.1 30.6 0.00 0.94 0.94 67 1009.2
20210517213005 15 208 16.1 30.6 0.00 0.94 0.94 66 1009.2
20210517212903 16 215 16.1 30.6 0.00 0.94 0.94 66 1009.2
20210517212801 16 218 12.9 30.6 0.00 0.94 0.94 66 1009.2
20210517212704 16 188 17.7 30.6 0.00 0.94 0.94 66 1009.2
20210517212633 16 198 20.9 30.6 0.00 0.94 0.94 66 1009.2
20210517212502 16 206 16.1 32.2 0.00 0.94 0.94 67 1009.2
20210517212404 16 213 20.9 32.2 0.00 0.94 0.94 66 1009.2
20210517212305 16 202 16.1 32.2 0.00 0.94 0.94 66 1009.2
20210517212201 16 192 12.9 32.2 0.00 0.94 0.94 66 1009.1
20210517212104 16 203 22.5 32.2 0.00 0.94 0.94 66 1009.1
20210517212004 16 207 12.9 32.2 0.00 0.94 0.94 66 1009.1
20210517211902 16 211 11.3 32.2 0.00 0.94 0.94 66 1009.2
20210517211804 16 198 9.7 32.2 0.00 0.94 0.94 66 1009.2
20210517211703 16 188 11.3 32.2 0.00 0.94 0.94 66 1009.2
20210517211601 16 207 20.9 32.2 0.00 0.94 0.94 66 1009.1
20210517211524 16 213 20.9 32.2 0.00 0.94 0.94 66 1009.1
20210517211402 16 201 16.1 32.2 0.00 0.94 0.94 66 1009.2
20210517211301 16 207 16.1 32.2 0.00 0.94 0.94 66 1009.2
20210517211204 16 187 14.5 32.2 0.00 0.94 0.94 66 1009.2
20210517211102 16 209 17.7 32.2 0.00 0.94 0.94 66 1009.2
20210517211002 16 204 29.0 32.2 0.00 0.94 0.94 66 1009.2
20210517210904 16 196 24.1 32.2 0.00 0.94 0.94 66 1009.3
20210517210803 16 207 19.3 32.2 0.00 0.94 0.94 66 1009.3
20210517210701 16 202 24.1 32.2 0.00 0.94 0.94 66 1009.3
20210517210603 16 211 14.5 32.2 0.00 0.94 0.94 66 1009.3
20210517210503 16 207 19.3 32.2 0.00 0.94 0.94 66 1009.2
20210517210401 16 217 19.3 32.2 0.00 0.94 0.94 66 1009.2
20210517210308 16 204 20.9 32.2 0.00 0.94 0.94 66 1009.3
20210517210204 16 209 22.5 32.2 0.00 0.94 0.94 66 1009.3
20210517210117 16 215 16.1 32.2 0.00 0.94 0.94 66 1009.3
20210517210011 16 205 20.9 32.2 0.00 0.94 0.94 66 1009.3
20210517205902 16 213 11.3 32.2 0.00 0.94 0.94 66 1009.3
20210517205802 16 227 22.5 29.0 0.00 0.94 0.94 67 1009.2
20210517205704 16 201 24.1 29.0 0.00 0.94 0.94 67 1009.2
20210517205603 16 253 17.7 29.0 0.00 0.94 0.94 67 1009.2
20210517205502 16 211 17.7 29.0 0.00 0.94 0.94 67 1009.2
20210517205403 16 210 17.7 29.0 0.00 0.94 0.94 67 1009.3
20210517205301 16 206 27.4 29.0 0.00 0.94 0.94 67 1009.3
20210517205202 16 201 11.3 32.2 0.00 0.94 0.94 67 1009.3
20210517205103 16 207 14.5 32.2 0.00 0.94 0.94 67 1009.2
20210517205025 16 204 19.3 32.2 0.00 0.94 0.94 67 1009.2
20210517204900 16 190 17.7 35.4 0.00 0.94 0.94 67 1009.2
20210517204803 16 215 20.9 35.4 0.00 0.94 0.94 67 1009.2
20210517204702 16 205 25.7 35.4 0.00 0.94 0.94 67 1009.1
20210517204602 16 211 11.3 35.4 0.00 0.94 0.94 67 1009.1
20210517204526 16 213 12.9 35.4 0.00 0.94 0.94 67 1009.1
20210517204403 16 211 12.9 35.4 0.00 0.94 0.94 67 1009.1
20210517204301 16 212 19.3 35.4 0.00 0.94 0.94 67 1009.1
20210517204203 16 219 25.7 35.4 0.00 0.94 0.94 67 1009.2
20210517204105 16 212 16.1 35.4 0.00 0.94 0.94 67 1009.2
20210517204005 16 205 12.9 35.4 0.00 0.94 0.94 67 1009.2
20210517203904 16 212 27.4 29.0 0.00 0.94 0.94 67 1009.2
20210517203802 16 194 20.9 27.4 0.00 0.94 0.94 67 1009.2
20210517203702 16 188 20.9 27.4 0.00 0.94 0.94 67 1009.2
20210517203604 16 190 16.1 29.0 0.00 0.94 0.94 67 1009.2
20210517203502 16 223 17.7 27.4 0.00 0.94 0.94 68 1009.2
20210517203421 16 197 17.7 27.4 0.00 0.94 0.94 68 1009.2
20210517203304 16 203 12.9 27.4 0.00 0.94 0.94 68 1009.1
20210517203202 16 212 25.7 27.4 0.00 0.94 0.94 68 1009.1
20210517203120 16 217 12.9 27.4 0.00 0.94 0.94 68 1009.1
20210517203005 16 209 22.5 27.4 0.00 0.94 0.94 68 1009.1
20210517202904 16 207 11.3 27.4 0.00 0.94 0.94 68 1009.1
20210517202802 16 214 17.7 27.4 0.00 0.94 0.94 68 1009.1
20210517202704 16 186 16.1 27.4 0.00 0.94 0.94 68 1009.1
20210517202603 16 213 16.1 27.4 0.00 0.94 0.94 68 1009.1
20210517202502 16 198 12.9 27.4 0.00 0.94 0.94 69 1009.1
20210517202404 16 203 14.5 27.4 0.00 0.94 0.94 69 1009.1
20210517202305 16 208 14.5 27.4 0.00 0.94 0.94 69 1009.1
20210517202202 16 228 25.7 29.0 0.00 0.94 0.94 68 1009.1
20210517202103 16 223 20.9 29.0 0.00 0.94 0.94 69 1009.1